KC5DAQ-25 Weather Reports


Display with metric or nautical units.
time (UTC)temp
F
wind
direction
speed
MPH
gust
MPH
rain 1hr
in
rain 24hr
in
rain mn
in
humidity
%
barometer
mb
20260505173403 81 203 2.0 4.0 0.00 0.00 0.00 81 1000.7
20260505173303 81 14 1.0 4.0 0.00 0.00 0.00 82 1000.8
20260505173203 81 176 1.0 4.0 0.00 0.00 0.00 82 1000.8
20260505173103 81 113 1.0 4.0 0.00 0.00 0.00 82 1000.8
20260505173004 80 224 0.0 4.0 0.00 0.00 0.00 82 1000.8
20260505172902 80 224 0.0 4.0 0.00 0.00 0.00 82 1000.7
20260505172803 80 231 0.0 4.0 0.00 0.00 0.00 82 1000.8
20260505172703 80 233 0.0 4.0 0.00 0.00 0.00 82 1000.8
20260505172602 80 250 0.0 4.0 0.00 0.00 0.00 82 1000.8
20260505172502 79 250 0.0 4.0 0.00 0.00 0.00 82 1000.8
20260505172402 79 250 1.0 4.0 0.00 0.00 0.00 82 1000.8
20260505172305 79 241 1.0 4.0 0.00 0.00 0.00 82 1000.8
20260505172203 79 241 2.0 4.0 0.00 0.00 0.00 82 1000.9
20260505172103 79 180 1.0 4.0 0.00 0.00 0.00 82 1000.8
20260505172002 79 299 1.0 5.0 0.00 0.00 0.00 82 1000.7
20260505171902 79 0 1.0 5.0 0.00 0.00 0.00 82 1000.9
20260505171804 79 99 1.0 5.0 0.00 0.00 0.00 82 1000.9
20260505171704 79 114 2.0 5.0 0.00 0.00 0.00 82 1000.9
20260505171603 79 313 1.0 5.0 0.00 0.00 0.00 82 1000.9
20260505171503 79 133 1.0 5.0 0.00 0.00 0.00 82 1000.7
20260505171402 79 137 0.0 5.0 0.00 0.00 0.00 82 1000.8
20260505171304 79 137 1.0 5.0 0.00 0.00 0.00 81 1000.9
20260505171203 79 137 2.0 5.0 0.00 0.00 0.00 81 1000.8
20260505171102 79 124 2.0 5.0 0.00 0.00 0.00 82 1000.7
20260505171003 79 179 2.0 4.0 0.00 0.00 0.00 82 1000.9
20260505170902 79 207 1.0 4.0 0.00 0.00 0.00 82 1000.8
20260505170804 79 214 0.0 4.0 0.00 0.00 0.00 82 1000.8
20260505170702 79 214 0.0 4.0 0.00 0.00 0.00 82 1000.8
20260505170602 79 51 1.0 4.0 0.00 0.00 0.00 82 1000.8
20260505170503 79 59 1.0 4.0 0.00 0.00 0.00 82 1000.9
20260505170403 79 216 1.0 4.0 0.00 0.00 0.00 82 1000.9
20260505170302 79 178 1.0 3.0 0.00 0.00 0.00 82 1000.9
20260505170203 79 111 0.0 3.0 0.00 0.00 0.00 82 1001.0
20260505170003 79 343 0.0 5.0 0.00 0.00 0.00 83 1001.0
20260505165904 79 250 1.0 5.0 0.00 0.00 0.00 83 1001.0
20260505165802 79 250 0.0 5.0 0.00 0.00 0.00 83 1001.0
20260505165702 79 99 0.0 5.0 0.00 0.00 0.00 83 1000.9
20260505165603 79 97 0.0 5.0 0.00 0.00 0.00 83 1001.0
20260505165503 79 99 0.0 5.0 0.00 0.00 0.00 83 1000.9
20260505165402 79 99 0.0 5.0 0.00 0.00 0.00 83 1001.0
20260505165305 79 94 1.0 5.0 0.00 0.00 0.00 83 1001.0
20260505165204 79 114 1.0 5.0 0.00 0.00 0.00 83 1001.0
20260505165102 79 127 1.0 5.0 0.00 0.00 0.00 83 1001.0
20260505165004 79 212 0.0 2.0 0.00 0.00 0.00 83 1001.0
20260505164902 79 154 0.0 2.0 0.00 0.00 0.00 83 1001.1
20260505164803 79 154 0.0 2.0 0.00 0.00 0.00 83 1001.0
20260505164702 78 155 0.0 2.0 0.00 0.00 0.00 83 1001.0
20260505164602 78 155 0.0 2.0 0.00 0.00 0.00 83 1001.0
20260505164503 79 337 0.0 2.0 0.00 0.00 0.00 83 1001.1
20260505164404 79 0 0.0 1.0 0.00 0.00 0.00 83 1001.1
20260505164302 79 0 0.0 1.0 0.00 0.00 0.00 83 1001.1
20260505164205 79 309 0.0 1.0 0.00 0.00 0.00 83 1001.0
20260505164102 78 227 0.0 1.0 0.00 0.00 0.00 83 1001.0
20260505164002 78 227 0.0 1.0 0.00 0.00 0.00 83 1001.1
20260505163902 78 227 0.0 1.0 0.00 0.00 0.00 83 1001.1
20260505163803 78 227 0.0 1.0 0.00 0.00 0.00 83 1001.1
20260505163703 78 227 0.0 1.0 0.00 0.00 0.00 83 1001.1
20260505163602 78 230 0.0 1.0 0.00 0.00 0.00 84 1001.0
20260505163504 78 247 0.0 1.0 0.00 0.00 0.00 84 1001.1
20260505163404 78 247 0.0 1.0 0.00 0.00 0.00 84 1001.1
20260505163302 78 247 0.0 1.0 0.00 0.00 0.00 84 1001.0
20260505163202 78 250 0.0 1.0 0.00 0.00 0.00 84 1001.1
20260505163105 78 250 0.0 1.0 0.00 0.00 0.00 85 1001.1
20260505163001 78 250 0.0 1.0 0.00 0.00 0.00 85 1001.1
20260505162855 78 250 0.0 2.0 0.00 0.00 0.00 85 1001.1
20260505162749 77 250 0.0 2.0 0.00 0.00 0.00 85 1001.1
20260505162650 77 250 0.0 2.0 0.00 0.00 0.00 85 1001.2
20260505162549 77 250 0.0 2.0 0.00 0.00 0.00 85 1001.1
20260505162446 77 159 0.0 2.0 0.00 0.00 0.00 85 1001.2
20260505162347 76 159 0.0 2.0 0.00 0.00 0.00 86 1001.2
20260505162244 76 159 0.0 2.0 0.00 0.00 0.00 86 1001.2
20260505162145 76 127 0.0 2.0 0.00 0.00 0.00 86 1001.2
20260505162044 76 117 1.0 2.0 0.00 0.00 0.00 86 1001.1
20260505161934 76 269 1.0 2.0 0.00 0.00 0.00 86 1001.2
20260505161831 76 21 0.0 1.0 0.00 0.00 0.00 86 1001.1
20260505161731 76 21 0.0 1.0 0.00 0.00 0.00 86 1001.0
20260505161633 76 348 0.0 1.0 0.00 0.00 0.00 86 1001.1
20260505161533 76 348 0.0 1.0 0.00 0.00 0.00 86 1001.1
20260505161425 76 348 0.0 2.0 0.00 0.00 0.00 86 1001.0
20260505161312 76 348 0.0 2.0 0.00 0.00 0.00 86 1001.1
20260505161212 76 348 0.0 2.0 0.00 0.00 0.00 86 1001.1
20260505161111 76 348 0.0 2.0 0.00 0.00 0.00 86 1001.1
20260505161010 76 348 0.0 2.0 0.00 0.00 0.00 86 1001.1
20260505160911 76 348 0.0 2.0 0.00 0.00 0.00 86 1001.0
20260505160812 76 348 0.0 2.0 0.00 0.00 0.00 86 1001.0
20260505160712 76 348 0.0 2.0 0.00 0.00 0.00 86 1001.0
20260505160612 76 0 0.0 2.0 0.00 0.00 0.00 86 1001.0
20260505160512 76 196 1.0 2.0 0.00 0.00 0.00 86 1000.9
20260505160412 76 220 0.0 2.0 0.00 0.00 0.00 86 1001.0
20260505160313 76 210 0.0 2.0 0.00 0.00 0.00 86 1001.0
20260505160210 76 210 0.0 2.0 0.00 0.00 0.00 86 1001.0
20260505160110 76 210 0.0 2.0 0.00 0.00 0.00 86 1000.9
20260505153340 75 279 0.0 2.0 0.00 0.00 0.00 87 1000.8
20260505153241 75 279 0.0 2.0 0.00 0.00 0.00 87 1000.8
20260505153135 75 279 0.0 2.0 0.00 0.00 0.00 87 1000.9
20260505153031 75 327 0.0 2.0 0.00 0.00 0.00 87 1000.8
20260505152932 75 231 0.0 2.0 0.00 0.00 0.00 87 1000.7
20260505152831 75 231 0.0 2.0 0.00 0.00 0.00 87 1000.8
20260505152731 75 231 0.0 2.0 0.00 0.00 0.00 87 1000.8
20260505152631 75 230 0.0 2.0 0.00 0.00 0.00 87 1000.8
20260505152531 75 230 0.0 3.0 0.00 0.00 0.00 87 1000.7
20260505152432 75 241 0.0 3.0 0.00 0.00 0.00 87 1000.7
20260505152332 75 243 0.0 3.0 0.00 0.00 0.00 87 1000.7
20260505152232 75 224 0.0 3.0 0.00 0.00 0.00 87 1000.7
20260505152132 75 224 0.0 3.0 0.00 0.00 0.00 87 1000.8
20260505152031 75 224 0.0 3.0 0.00 0.00 0.00 87 1000.7
20260505151931 75 224 0.0 3.0 0.00 0.00 0.00 87 1000.7
20260505151832 75 118 0.0 3.0 0.00 0.00 0.00 87 1000.8
20260505151732 75 117 0.0 3.0 0.00 0.00 0.00 87 1000.8
20260505151632 75 117 0.0 3.0 0.00 0.00 0.00 87 1000.8
20260505151531 75 63 0.0 2.0 0.00 0.00 0.00 87 1000.9
20260505151426 75 87 0.0 2.0 0.00 0.00 0.00 87 1000.8
20260505151325 75 87 0.0 3.0 0.00 0.00 0.00 87 1000.9
20260505151223 75 251 1.0 3.0 0.00 0.00 0.00 87 1000.8
20260505151120 75 17 0.0 3.0 0.00 0.00 0.00 88 1000.8
20260505151008 75 79 1.0 3.0 0.00 0.00 0.00 88 1000.8
20260505150904 75 0 0.0 3.0 0.00 0.00 0.00 88 1000.8
20260505150803 75 238 0.0 3.0 0.00 0.00 0.00 88 1000.9
20260505150703 74 238 0.0 3.0 0.00 0.00 0.00 88 1000.8
20260505150604 74 238 0.0 3.0 0.00 0.00 0.00 88 1000.8
20260505150504 74 237 0.0 3.0 0.00 0.00 0.00 88 1000.8
20260505150403 74 265 0.0 2.0 0.00 0.00 0.00 88 1000.8
20260505150303 74 274 0.0 2.0 0.00 0.00 0.00 88 1000.7
20260505150203 74 274 0.0 2.0 0.00 0.00 0.00 88 1000.6
20260505140632 73 206 0.0 3.0 0.00 0.00 0.00 88 1000.6
20260505140532 73 206 0.0 3.0 0.00 0.00 0.00 88 1000.6
20260505140432 73 206 0.0 3.0 0.00 0.00 0.00 88 1000.6
20260505140304 73 206 1.0 3.0 0.00 0.00 0.00 88 1000.5
20260505140203 73 206 1.0 3.0 0.00 0.00 0.00 88 1000.6
20260505130301 71 209 0.0 2.0 0.00 0.00 0.00 88 1000.7
20260505130202 71 209 0.0 2.0 0.00 0.00 0.00 88 1000.6
20260505125009 71 44 0.0 2.0 0.00 0.00 0.00 88 1000.4
20260505124903 71 44 0.0 2.0 0.00 0.00 0.00 88 1000.4
20260505124802 71 44 0.0 2.0 0.00 0.00 0.00 88 1000.4
20260505124702 71 44 0.0 2.0 0.00 0.00 0.00 88 1000.4
20260505124602 71 44 0.0 2.0 0.00 0.00 0.00 88 1000.5
20260505124502 71 44 1.0 2.0 0.00 0.00 0.00 88 1000.3
20260505124402 71 44 0.0 2.0 0.00 0.00 0.00 88 1000.4
20260505124302 71 103 0.0 2.0 0.00 0.00 0.00 88 1000.4
20260505124203 71 106 0.0 2.0 0.00 0.00 0.00 88 1000.3
20260505124107 71 106 0.0 2.0 0.00 0.00 0.00 88 1000.4
20260505124003 71 86 0.0 2.0 0.00 0.00 0.00 88 1000.3
20260505123902 71 86 0.0 2.0 0.00 0.00 0.00 88 1000.1
20260505123803 71 86 1.0 2.0 0.00 0.00 0.00 88 1000.1
20260505123702 71 223 1.0 2.0 0.00 0.00 0.00 88 1000.1
20260505123604 71 226 1.0 2.0 0.00 0.00 0.00 88 1000.0
20260505123502 71 248 0.0 2.0 0.00 0.00 0.00 88 999.9
20260505123404 71 240 0.0 2.0 0.00 0.00 0.00 88 999.9
20260505123304 71 240 0.0 2.0 0.00 0.00 0.00 88 999.8
20260505123211 71 240 0.0 1.0 0.00 0.00 0.00 88 999.8
20260505123102 71 233 0.0 1.0 0.00 0.00 0.00 88 999.8
20260505123002 71 274 0.0 1.0 0.00 0.00 0.00 88 999.8
20260505122903 71 272 0.0 1.0 0.00 0.00 0.00 88 999.8
20260505122802 71 330 0.0 1.0 0.00 0.00 0.00 88 999.8
20260505122704 71 330 0.0 1.0 0.00 0.00 0.00 88 999.8
20260505122602 71 330 0.0 1.0 0.00 0.00 0.00 88 999.8
20260505122504 71 330 0.0 1.0 0.00 0.00 0.00 88 999.9
20260505122402 71 330 0.0 1.0 0.00 0.00 0.00 88 999.9
20260505122305 71 330 0.0 1.0 0.00 0.00 0.00 88 999.9
20260505122202 71 330 0.0 1.0 0.00 0.00 0.00 88 999.9
20260505122102 71 330 0.0 1.0 0.00 0.00 0.00 88 999.9
20260505122001 71 330 0.0 2.0 0.00 0.00 0.00 88 999.9
20260505121902 70 330 0.0 2.0 0.00 0.00 0.00 88 1000.0
20260505121802 70 262 0.0 2.0 0.00 0.00 0.00 88 1000.1
20260505121704 71 262 0.0 2.0 0.00 0.00 0.00 88 1000.0
20260505121602 70 262 0.0 2.0 0.00 0.00 0.00 88 1000.0
20260505121502 70 262 0.0 2.0 0.00 0.00 0.00 88 1000.0
20260505121402 70 262 0.0 2.0 0.00 0.00 0.00 87 1000.0
20260505121303 70 262 0.0 2.0 0.00 0.00 0.00 87 999.9
20260505121202 70 262 0.0 2.0 0.00 0.00 0.00 87 999.9
20260505121103 70 262 0.0 2.0 0.00 0.00 0.00 87 1000.0
20260505121004 70 254 0.0 1.0 0.00 0.00 0.00 87 1000.1
20260505120903 70 254 0.0 1.0 0.00 0.00 0.00 87 1000.1
20260505120802 70 254 0.0 1.0 0.00 0.00 0.00 87 1000.1
20260505120659 70 254 0.0 1.0 0.00 0.00 0.00 87 1000.2
20260505120600 70 254 0.0 1.0 0.00 0.00 0.00 87 1000.1
20260505120500 70 254 0.0 1.0 0.00 0.00 0.00 87 1000.1
20260505120407 70 254 0.0 1.0 0.00 0.00 0.00 87 1000.0
20260505120300 70 266 0.0 1.0 0.00 0.00 0.00 87 999.9
20260505120201 70 51 0.0 1.0 0.00 0.00 0.00 87 999.8
20260505120059 70 51 0.0 1.0 0.00 0.00 0.00 87 999.9
20260505120001 70 52 0.0 1.0 0.00 0.00 0.00 87 999.9
20260505115859 70 93 0.0 1.0 0.00 0.00 0.00 87 999.9
20260505115759 70 94 0.0 1.0 0.00 0.00 0.00 87 999.9
20260505115659 70 94 0.0 1.0 0.00 0.00 0.00 87 999.9
20260505115601 70 94 0.0 1.0 0.00 0.00 0.00 87 999.9
20260505115500 70 94 0.0 1.0 0.00 0.00 0.00 87 1000.0
20260505115359 70 94 0.0 1.0 0.00 0.00 0.00 87 999.9
20260505115300 70 94 0.0 1.0 0.00 0.00 0.00 87 999.9
20260505115201 70 94 0.0 2.0 0.00 0.00 0.00 87 999.8
20260505115101 70 93 0.0 2.0 0.00 0.00 0.00 87 999.7
20260505115001 70 234 0.0 2.0 0.00 0.00 0.00 87 999.7
20260505114900 70 234 0.0 2.0 0.00 0.00 0.00 87 999.7
20260505114801 70 233 0.0 2.0 0.00 0.00 0.00 87 999.7
20260505114701 70 233 0.0 2.0 0.00 0.00 0.00 87 999.6
20260505114559 70 247 0.0 2.0 0.00 0.00 0.00 87 999.6
20260505114500 70 247 0.0 2.0 0.00 0.00 0.00 87 999.7
20260505114359 70 247 0.0 2.0 0.00 0.00 0.00 87 999.8
20260505114301 70 247 0.0 2.0 0.00 0.00 0.00 87 999.7
20260505114201 70 179 0.0 0.0 0.00 0.00 0.00 87 999.7
20260505114059 70 179 0.0 0.0 0.00 0.00 0.00 87 999.8
20260505114000 70 179 0.0 0.0 0.00 0.00 0.00 87 999.7
20260505113908 70 179 0.0 0.0 0.00 0.00 0.00 87 999.8
20260505113759 70 179 0.0 0.0 0.00 0.00 0.00 87 999.9
20260505113700 70 179 0.0 0.0 0.00 0.00 0.00 87 999.8
20260505113559 70 179 0.0 0.0 0.00 0.00 0.00 87 999.7
20260505113459 70 179 0.0 0.0 0.00 0.00 0.00 87 999.7
20260505113400 70 179 0.0 0.0 0.00 0.00 0.00 87 999.7
20260505113301 70 179 0.0 0.0 0.00 0.00 0.00 87 999.6
20260505113159 70 179 0.0 0.0 0.00 0.00 0.00 87 999.6
20260505113058 70 179 0.0 1.0 0.00 0.00 0.00 87 999.6
20260505113002 70 179 0.0 1.0 0.00 0.00 0.00 87 999.6
20260505112859 70 179 0.0 1.0 0.00 0.00 0.00 87 999.6
20260505112800 70 179 0.0 1.0 0.00 0.00 0.00 87 999.7
20260505112653 70 179 0.0 1.0 0.00 0.00 0.00 87 999.7
20260505112544 70 179 0.0 1.0 0.00 0.00 0.00 87 999.8
20260505112441 70 179 0.0 1.0 0.00 0.00 0.00 87 999.8
20260505112342 70 179 0.0 1.0 0.00 0.00 0.00 87 999.9
20260505112233 70 179 0.0 1.0 0.00 0.00 0.00 87 999.9
20260505112135 70 179 0.0 1.0 0.00 0.00 0.00 87 999.9
20260505112033 70 179 0.0 1.0 0.00 0.00 0.00 87 1000.0
20260505111931 70 179 0.0 1.0 0.00 0.00 0.00 87 1000.0
20260505111831 70 179 0.0 1.0 0.00 0.00 0.00 87 1000.0
20260505111733 70 179 0.0 1.0 0.00 0.00 0.00 87 1000.0
20260505111633 70 179 0.0 1.0 0.00 0.00 0.00 87 999.9
20260505111532 70 179 0.0 1.0 0.00 0.00 0.00 87 999.9
20260505111431 70 179 0.0 1.0 0.00 0.00 0.00 87 999.9
20260505111331 70 179 0.0 1.0 0.00 0.00 0.00 87 999.9
20260505111236 70 179 0.0 0.0 0.00 0.00 0.00 87 999.8
20260505111133 70 179 0.0 1.0 0.00 0.00 0.00 87 999.9
20260505111033 70 179 0.0 1.0 0.00 0.00 0.00 87 999.9
20260505110932 70 179 0.0 1.0 0.00 0.00 0.00 87 999.9
20260505110831 70 179 0.0 1.0 0.00 0.00 0.00 87 999.9
20260505110732 70 179 0.0 1.0 0.00 0.00 0.00 87 999.9
20260505110630 70 179 0.0 1.0 0.00 0.00 0.00 87 999.9
20260505110529 70 179 0.0 1.0 0.00 0.00 0.00 87 999.8
20260505110422 70 179 0.0 1.0 0.00 0.00 0.00 87 999.8
20260505110323 70 179 0.0 1.0 0.00 0.00 0.00 87 999.8
20260505110211 70 179 0.0 1.0 0.00 0.00 0.00 87 999.7
20260505102157 69 238 0.0 0.0 0.00 0.00 0.00 87 999.8
20260505102059 69 238 0.0 0.0 0.00 0.00 0.00 87 999.9
20260505101958 69 238 0.0 0.0 0.00 0.00 0.00 87 1000.0
20260505101858 69 238 0.0 0.0 0.00 0.00 0.00 87 999.9
20260505101757 69 238 0.0 0.0 0.00 0.00 0.00 87 1000.0
20260505101657 69 238 0.0 0.0 0.00 0.00 0.00 86 1000.0
20260505101558 69 238 0.0 1.0 0.00 0.00 0.00 86 1000.0
20260505101459 69 238 0.0 1.0 0.00 0.00 0.00 86 999.9
20260505101358 69 238 0.0 1.0 0.00 0.00 0.00 86 999.9
20260505101257 69 238 0.0 1.0 0.00 0.00 0.00 86 999.9
20260505101158 69 238 0.0 1.0 0.00 0.00 0.00 86 1000.0
20260505101059 69 238 0.0 1.0 0.00 0.00 0.00 86 1000.0
20260505101000 69 238 0.0 1.0 0.00 0.00 0.00 86 999.9
20260505100857 69 238 0.0 1.0 0.00 0.00 0.00 86 999.9
20260505100757 69 238 0.0 1.0 0.00 0.00 0.00 86 999.9
20260505100658 69 238 0.0 1.0 0.00 0.00 0.00 86 999.8
20260505100557 69 238 0.0 1.0 0.00 0.00 0.00 86 999.8
20260505100457 69 309 0.0 1.0 0.00 0.00 0.00 86 999.8
20260505100358 69 309 0.0 1.0 0.00 0.00 0.00 86 999.8
20260505100257 69 309 0.0 1.0 0.00 0.00 0.00 86 999.8
20260505100159 69 309 0.0 1.0 0.00 0.00 0.00 86 999.8
20260505100058 69 309 0.0 1.0 0.00 0.00 0.00 86 999.8
20260505095957 69 317 0.0 1.0 0.00 0.00 0.00 86 999.8
20260505095857 69 317 0.0 1.0 0.00 0.00 0.00 86 999.7
20260505095758 69 317 0.0 1.0 0.00 0.00 0.00 86 999.7
20260505095658 69 317 0.0 1.0 0.00 0.00 0.00 86 999.8
20260505095557 69 317 0.0 1.0 0.00 0.00 0.00 86 999.7
20260505095458 69 317 0.0 1.0 0.00 0.00 0.00 86 999.8
20260505095358 69 317 0.0 1.0 0.00 0.00 0.00 86 999.8
20260505095258 69 317 0.0 1.0 0.00 0.00 0.00 86 999.8
20260505095200 69 317 0.0 1.0 0.00 0.00 0.00 86 999.8
20260505095058 69 317 0.0 1.0 0.00 0.00 0.00 86 999.8
20260505094956 69 317 0.0 1.0 0.00 0.00 0.00 86 999.9
20260505094858 69 317 0.0 1.0 0.00 0.00 0.00 86 999.9
20260505094757 69 317 0.0 1.0 0.00 0.00 0.00 86 999.9
20260505094656 69 317 0.0 1.0 0.00 0.00 0.00 86 999.9
20260505094558 69 317 0.0 1.0 0.00 0.00 0.00 86 999.9
20260505094457 69 317 0.0 1.0 0.00 0.00 0.00 86 999.9
20260505094357 69 317 0.0 1.0 0.00 0.00 0.00 86 1000.0
20260505094310 69 317 0.0 1.0 0.00 0.00 0.00 86 1000.0
20260505094157 69 317 0.0 1.0 0.00 0.00 0.00 86 1000.0
20260505094057 69 317 0.0 1.0 0.00 0.00 0.00 86 1000.0
20260505093957 69 317 0.0 1.0 0.00 0.00 0.00 86 1000.0
20260505093858 69 317 0.0 1.0 0.00 0.00 0.00 86 1000.1
20260505093756 69 317 0.0 1.0 0.00 0.00 0.00 86 1000.0
20260505093654 69 317 0.0 1.0 0.00 0.00 0.00 86 1000.0
20260505093556 69 317 0.0 1.0 0.00 0.00 0.00 86 1000.0
20260505093443 69 317 0.0 1.0 0.00 0.00 0.00 86 1000.0
20260505093343 69 317 0.0 1.0 0.00 0.00 0.00 86 1000.0
20260505093243 69 317 0.0 1.0 0.00 0.00 0.00 86 999.9
20260505093141 69 317 0.0 1.0 0.00 0.00 0.00 86 1000.0
20260505093038 69 317 0.0 1.0 0.00 0.00 0.00 86 1000.0
20260505092931 69 317 0.0 1.0 0.00 0.00 0.00 86 1000.0
20260505092832 69 317 0.0 0.0 0.00 0.00 0.00 86 1000.0
20260505092731 69 317 0.0 0.0 0.00 0.00 0.00 86 1000.0
20260505092631 69 317 0.0 0.0 0.00 0.00 0.00 86 1000.0
20260505092529 69 319 0.0 0.0 0.00 0.00 0.00 86 1000.0
20260505092429 69 317 0.0 0.0 0.00 0.00 0.00 86 1000.0
20260505092318 69 319 0.0 0.0 0.00 0.00 0.00 86 999.9
20260505092220 69 312 0.0 0.0 0.00 0.00 0.00 86 1000.0
20260505092115 69 312 0.0 0.0 0.00 0.00 0.00 86 1000.0
20260505092009 69 312 0.0 0.0 0.00 0.00 0.00 86 1000.0
20260505091911 69 312 0.0 0.0 0.00 0.00 0.00 86 1000.0
20260505091806 69 312 0.0 0.0 0.00 0.00 0.00 86 1000.1
20260505091703 69 56 0.0 1.0 0.00 0.00 0.00 86 1000.1
20260505091604 69 56 0.0 1.0 0.00 0.00 0.00 85 1000.2
20260505091505 69 58 0.0 1.0 0.00 0.00 0.00 85 1000.2
20260505091403 69 58 0.0 1.0 0.00 0.00 0.00 85 1000.2
20260505091300 69 58 0.0 1.0 0.00 0.00 0.00 85 1000.2
20260505091200 69 58 0.0 1.0 0.00 0.00 0.00 85 1000.2
20260505091057 69 58 0.0 1.0 0.00 0.00 0.00 85 1000.1
20260505090957 69 58 0.0 1.0 0.00 0.00 0.00 85 1000.2
20260505090856 69 58 0.0 1.0 0.00 0.00 0.00 85 1000.2
20260505090756 69 58 0.0 1.0 0.00 0.00 0.00 85 1000.2
20260505090657 69 261 0.0 1.0 0.00 0.00 0.00 85 1000.3
20260505090557 69 261 0.0 1.0 0.00 0.00 0.00 85 1000.3
20260505090457 69 261 0.0 1.0 0.00 0.00 0.00 85 1000.3
20260505090355 69 261 0.0 1.0 0.00 0.00 0.00 85 1000.3
20260505090256 69 261 0.0 1.0 0.00 0.00 0.00 85 1000.4
20260505090155 69 261 0.0 1.0 0.00 0.00 0.00 85 1000.3
20260505090055 69 261 0.0 1.0 0.00 0.00 0.00 85 1000.3
20260505085955 69 261 0.0 1.0 0.00 0.00 0.00 85 1000.3
20260505085857 69 261 0.0 1.0 0.00 0.00 0.00 85 1000.3
20260505085755 69 261 0.0 1.0 0.00 0.00 0.00 85 1000.3
20260505085655 69 261 0.0 1.0 0.00 0.00 0.00 85 1000.3
20260505085556 69 261 0.0 1.0 0.00 0.00 0.00 85 1000.3
20260505085455 69 261 0.0 1.0 0.00 0.00 0.00 85 1000.3
20260505085356 69 261 0.0 0.0 0.00 0.00 0.00 85 1000.3
20260505085256 69 261 0.0 0.0 0.00 0.00 0.00 85 1000.3
20260505085155 69 240 0.0 0.0 0.00 0.00 0.00 85 1000.3
20260505085056 69 240 0.0 0.0 0.00 0.00 0.00 85 1000.3
20260505085001 69 240 0.0 1.0 0.00 0.00 0.00 85 1000.3
20260505084856 69 240 0.0 1.0 0.00 0.00 0.00 85 1000.3
20260505084756 69 240 0.0 1.0 0.00 0.00 0.00 85 1000.4
20260505084655 69 240 0.0 1.0 0.00 0.00 0.00 85 1000.4
20260505084556 69 240 0.0 1.0 0.00 0.00 0.00 85 1000.3
20260505084455 69 240 0.0 1.0 0.00 0.00 0.00 85 1000.3
20260505084356 69 237 0.0 1.0 0.00 0.00 0.00 85 1000.3
20260505084256 69 237 0.0 1.0 0.00 0.00 0.00 85 1000.3
20260505084156 69 237 0.0 1.0 0.00 0.00 0.00 85 1000.3
20260505084057 69 237 0.0 1.0 0.00 0.00 0.00 85 1000.3
20260505083956 69 237 0.0 0.0 0.00 0.00 0.00 85 1000.3
20260505083855 69 237 0.0 0.0 0.00 0.00 0.00 85 1000.3
20260505083755 69 237 0.0 0.0 0.00 0.00 0.00 85 1000.3
20260505083655 69 237 0.0 0.0 0.00 0.00 0.00 85 1000.4
20260505083557 69 237 0.0 0.0 0.00 0.00 0.00 85 1000.4
20260505083456 69 237 0.0 0.0 0.00 0.00 0.00 85 1000.4
20260505083356 69 237 0.0 0.0 0.00 0.00 0.00 85 1000.3
20260505083257 69 237 0.0 0.0 0.00 0.00 0.00 85 1000.5
20260505083158 69 237 0.0 0.0 0.00 0.00 0.00 85 1000.5
20260505083056 69 237 0.0 0.0 0.00 0.00 0.00 85 1000.4
20260505082956 69 237 0.0 0.0 0.00 0.00 0.00 85 1000.3
20260505082856 69 237 0.0 0.0 0.00 0.00 0.00 85 1000.4
20260505082755 69 237 0.0 0.0 0.00 0.00 0.00 85 1000.3
20260505082655 69 237 0.0 0.0 0.00 0.00 0.00 85 1000.4
20260505082554 69 235 0.0 0.0 0.00 0.00 0.00 85 1000.4
20260505082455 69 235 0.0 0.0 0.00 0.00 0.00 85 1000.4
20260505082354 69 235 0.0 0.0 0.00 0.00 0.00 85 1000.4
20260505082304 69 235 0.0 0.0 0.00 0.00 0.00 85 1000.3
20260505082155 69 235 0.0 0.0 0.00 0.00 0.00 85 1000.4
20260505082054 69 235 0.0 0.0 0.00 0.00 0.00 85 1000.5
20260505081955 69 235 0.0 0.0 0.00 0.00 0.00 85 1000.4
20260505081856 69 235 0.0 0.0 0.00 0.00 0.00 85 1000.5
20260505081754 69 235 0.0 0.0 0.00 0.00 0.00 85 1000.6
20260505081656 69 235 0.0 0.0 0.00 0.00 0.00 85 1000.6
20260505081554 69 235 0.0 0.0 0.00 0.00 0.00 85 1000.6
20260505081456 69 235 0.0 0.0 0.00 0.00 0.00 85 1000.6
20260505081355 69 235 0.0 0.0 0.00 0.00 0.00 85 1000.7
20260505081254 69 235 0.0 0.0 0.00 0.00 0.00 85 1000.6
20260505081155 69 235 0.0 0.0 0.00 0.00 0.00 85 1000.6
20260505081055 69 235 0.0 0.0 0.00 0.00 0.00 85 1000.7
20260505080956 69 235 0.0 0.0 0.00 0.00 0.00 85 1000.6
20260505080854 69 235 0.0 1.0 0.00 0.00 0.00 85 1000.6
20260505080754 69 235 0.0 1.0 0.00 0.00 0.00 85 1000.6
20260505080656 69 234 0.0 1.0 0.00 0.00 0.00 85 1000.6
20260505080554 69 234 0.0 1.0 0.00 0.00 0.00 85 1000.6
20260505080455 69 234 0.0 1.0 0.00 0.00 0.00 85 1000.6
20260505080354 69 234 0.0 1.0 0.00 0.00 0.00 85 1000.6
20260505080256 69 234 0.0 1.0 0.00 0.00 0.00 85 1000.7
20260505080154 69 234 0.0 1.0 0.00 0.00 0.00 85 1000.7
20260505080056 69 234 0.0 1.0 0.00 0.00 0.00 85 1000.7
20260505075954 69 234 0.0 1.0 0.00 0.00 0.00 85 1000.8
20260505075854 69 233 0.0 0.0 0.00 0.00 0.00 85 1000.7
20260505075754 69 233 0.0 0.0 0.00 0.00 0.00 85 1000.7
20260505075655 69 233 0.0 0.0 0.00 0.00 0.00 85 1000.7
20260505075555 69 237 0.0 0.0 0.00 0.00 0.00 85 1000.7
20260505075455 69 237 0.0 0.0 0.00 0.00 0.00 85 1000.7
20260505075354 69 237 0.0 0.0 0.00 0.00 0.00 85 1000.7
20260505075256 69 237 0.0 0.0 0.00 0.00 0.00 85 1000.8
20260505075154 69 237 0.0 0.0 0.00 0.00 0.00 85 1000.9
20260505075056 69 237 0.0 0.0 0.00 0.00 0.00 85 1000.9
20260505074955 69 237 0.0 0.0 0.00 0.00 0.00 85 1000.9
20260505074855 69 240 0.0 0.0 0.00 0.00 0.00 85 1000.9
20260505074755 69 240 0.0 0.0 0.00 0.00 0.00 85 1000.9
20260505074654 69 240 0.0 0.0 0.00 0.00 0.00 85 1000.9
20260505074555 69 240 0.0 0.0 0.00 0.00 0.00 85 1000.9
20260505074455 69 240 0.0 0.0 0.00 0.00 0.00 85 1000.9
20260505074353 69 240 0.0 0.0 0.00 0.00 0.00 85 1000.9
20260505074253 69 240 0.0 0.0 0.00 0.00 0.00 85 1000.9
20260505074155 69 240 0.0 0.0 0.00 0.00 0.00 85 1000.9
20260505074055 69 240 0.0 0.0 0.00 0.00 0.00 85 1000.9
20260505073956 69 240 0.0 0.0 0.00 0.00 0.00 85 1000.9
20260505073855 69 240 0.0 0.0 0.00 0.00 0.00 85 1000.9
20260505073834 69 240 0.0 0.0 0.00 0.00 0.00 85 1000.9
20260505073823 69 240 0.0 0.0 0.00 0.00 0.00 85 1000.9
20260505073810 69 240 0.0 0.0 0.00 0.00 0.00 85 1000.9
20260505073455 69 240 0.0 0.0 0.00 0.00 0.00 85 1000.9
20260505073353 69 240 0.0 0.0 0.00 0.00 0.00 85 1000.9
20260505073254 69 240 0.0 0.0 0.00 0.00 0.00 85 1000.9
20260505073155 69 240 0.0 0.0 0.00 0.00 0.00 85 1001.0
20260505073054 69 240 0.0 0.0 0.00 0.00 0.00 85 1000.9
20260505072954 69 240 0.0 0.0 0.00 0.00 0.00 85 1001.0
20260505072855 69 240 0.0 0.0 0.00 0.00 0.00 85 1000.9
20260505072754 69 240 0.0 0.0 0.00 0.00 0.00 85 1001.0
20260505072654 69 240 0.0 0.0 0.00 0.00 0.00 85 1000.9
20260505072555 69 240 0.0 0.0 0.00 0.00 0.00 85 1000.9
20260505072454 69 240 0.0 0.0 0.00 0.00 0.00 85 1001.0
20260505072354 69 240 0.0 0.0 0.00 0.00 0.00 85 1000.9
20260505072255 69 243 0.0 0.0 0.00 0.00 0.00 85 1001.0
20260505072153 69 244 0.0 0.0 0.00 0.00 0.00 85 1000.9
20260505072055 69 244 0.0 0.0 0.00 0.00 0.00 85 1001.0
20260505071955 69 243 0.0 0.0 0.00 0.00 0.00 84 1000.9
20260505071854 69 243 0.0 0.0 0.00 0.00 0.00 85 1000.9
20260505071754 69 243 0.0 0.0 0.00 0.00 0.00 85 1000.9
20260505071655 69 244 0.0 0.0 0.00 0.00 0.00 85 1000.9
20260505071554 69 243 0.0 1.0 0.00 0.00 0.00 84 1001.1
20260505071454 69 243 0.0 1.0 0.00 0.00 0.00 84 1001.0
20260505071353 69 243 0.0 1.0 0.00 0.00 0.00 85 1001.1
20260505071253 69 243 0.0 1.0 0.00 0.00 0.00 85 1001.1
20260505071204 69 244 0.0 1.0 0.00 0.00 0.00 85 1001.1
20260505071054 69 244 0.0 1.0 0.00 0.00 0.00 85 1001.2
20260505070953 69 243 0.0 1.0 0.00 0.00 0.00 85 1001.2
20260505070854 69 243 0.0 1.0 0.00 0.00 0.00 85 1001.2
20260505070753 69 243 0.0 1.0 0.00 0.00 0.00 84 1001.2
20260505070653 69 243 0.0 1.0 0.00 0.00 0.00 84 1001.2
20260505070554 69 243 0.0 1.0 0.00 0.00 0.00 85 1001.1
20260505070453 69 243 0.0 1.0 0.00 0.00 0.00 85 1001.2
20260505070354 69 243 0.0 1.0 0.00 0.00 0.00 85 1001.3
20260505070255 69 243 0.0 1.0 0.00 0.00 0.00 85 1001.2
20260505070154 69 243 0.0 1.0 0.00 0.00 0.00 85 1001.2
20260505070052 69 245 0.0 1.0 0.00 0.00 0.00 85 1001.3
20260505065953 69 245 0.0 1.0 0.00 0.00 0.00 85 1001.3
20260505065853 69 245 0.0 1.0 0.00 0.00 0.00 85 1001.2
20260505065753 69 245 0.0 1.0 0.00 0.00 0.00 85 1001.2
20260505065653 69 245 0.0 1.0 0.00 0.00 0.00 84 1001.2
20260505065554 69 327 0.0 1.0 0.00 0.00 0.00 84 1001.2
20260505065454 69 327 0.0 1.0 0.00 0.00 0.00 84 1001.2
20260505065354 69 327 0.0 1.0 0.00 0.00 0.00 84 1001.2
20260505065254 69 327 0.0 1.0 0.00 0.00 0.00 84 1001.2
20260505065154 69 327 0.0 1.0 0.00 0.00 0.00 84 1001.2
20260505065053 69 327 0.0 1.0 0.00 0.00 0.00 85 1001.3
20260505064953 69 327 0.0 1.0 0.00 0.00 0.00 84 1001.3
20260505064855 69 327 0.0 1.0 0.00 0.00 0.00 84 1001.2
20260505064752 69 327 0.0 1.0 0.00 0.00 0.00 84 1001.3
20260505064652 69 327 0.0 0.0 0.00 0.00 0.00 84 1001.3
20260505064552 69 327 0.0 0.0 0.00 0.00 0.00 84 1001.3
20260505064454 69 327 0.0 1.0 0.00 0.00 0.00 84 1001.3
20260505064354 69 327 0.0 1.0 0.00 0.00 0.00 84 1001.3
20260505064253 69 327 0.0 1.0 0.00 0.00 0.00 84 1001.4
20260505064153 69 327 0.0 1.0 0.00 0.00 0.00 84 1001.3
20260505064052 69 327 0.0 1.0 0.00 0.00 0.00 84 1001.4
20260505063953 69 327 0.0 1.0 0.00 0.00 0.00 84 1001.4
20260505063852 69 327 0.0 1.0 0.00 0.00 0.00 84 1001.3
20260505063753 69 327 0.0 1.0 0.00 0.00 0.00 84 1001.3
20260505063653 69 327 0.0 1.0 0.00 0.00 0.00 84 1001.4
20260505063552 69 327 0.0 1.0 0.00 0.00 0.00 84 1001.3
20260505063452 69 214 0.0 0.0 0.00 0.00 0.00 84 1001.3
20260505063353 69 214 0.0 0.0 0.00 0.00 0.00 84 1001.4
20260505063254 69 214 0.0 1.0 0.00 0.00 0.00 84 1001.4
20260505063152 69 214 0.0 1.0 0.00 0.00 0.00 84 1001.3
20260505063053 69 214 0.0 1.0 0.00 0.00 0.00 84 1001.3
20260505062947 69 214 0.0 1.0 0.00 0.00 0.00 84 1001.3
20260505062849 69 214 0.0 1.0 0.00 0.00 0.00 84 1001.3
20260505062736 69 214 0.0 1.0 0.00 0.00 0.00 84 1001.3
20260505062631 69 214 0.0 1.0 0.00 0.00 0.00 84 1001.4
20260505062531 69 214 0.0 1.0 0.00 0.00 0.00 84 1001.3
20260505062432 69 214 0.0 1.0 0.00 0.00 0.00 84 1001.3
20260505062332 69 214 0.0 1.0 0.00 0.00 0.00 84 1001.3
20260505062232 69 212 0.0 0.0 0.00 0.00 0.00 84 1001.3
20260505062131 69 212 0.0 0.0 0.00 0.00 0.00 84 1001.3
20260505062033 69 212 0.0 0.0 0.00 0.00 0.00 84 1001.4
20260505061932 69 212 0.0 0.0 0.00 0.00 0.00 84 1001.4
20260505061831 69 212 0.0 0.0 0.00 0.00 0.00 84 1001.4
20260505061733 0 212 0.0 0.0 0.00 0.00 0.00 1001.4
20260505061633 0 0.0 0.0 0.00 0.00 0.00 1001.3
20260505061533 69 175 0.0 0.0 0.00 0.00 0.00 84 1001.4
20260505061432 69 175 0.0 0.0 0.00 0.00 0.00 84 1001.4
20260505061333 69 175 0.0 1.0 0.00 0.00 0.00 84 1001.3
20260505061232 69 175 0.0 1.0 0.00 0.00 0.00 84 1001.4
20260505061132 69 175 0.0 1.0 0.00 0.00 0.00 84 1001.3
20260505061032 69 175 0.0 1.0 0.00 0.00 0.00 84 1001.4
20260505060934 69 175 0.0 1.0 0.00 0.00 0.00 84 1001.4
20260505060833 69 175 0.0 1.0 0.00 0.00 0.00 84 1001.3
20260505060733 69 175 0.0 1.0 0.00 0.00 0.00 84 1001.4
20260505060632 69 175 0.0 1.0 0.00 0.00 0.00 84 1001.3
20260505060508 69 175 0.0 1.0 0.00 0.00 0.00 84 1001.4
20260505060406 69 193 0.0 1.0 0.00 0.00 0.00 84 1001.5
20260505060305 69 193 0.0 1.0 0.00 0.00 0.00 84 1001.4
20260505060202 69 193 0.0 1.0 0.00 0.00 0.00 84 1001.5
20260505060107 69 192 0.0 1.0 0.00 0.00 0.00 84 1001.5
20260505060002 69 193 0.0 1.0 0.00 0.00 0.00 84 1001.5
20260505055903 69 192 0.0 1.0 0.00 0.00 0.00 84 1001.6
20260505055802 69 193 0.0 1.0 0.00 0.00 0.00 84 1001.6
20260505055702 69 192 0.0 1.0 0.00 0.00 0.00 84 1001.6
20260505055602 69 336 0.0 0.0 0.00 0.00 0.00 84 1001.7
20260505055501 69 336 0.0 0.0 0.00 0.00 0.00 84 1001.7
20260505055402 69 336 0.0 0.0 0.00 0.00 0.00 84 1001.7
20260505055304 69 336 0.0 0.0 0.00 0.00 0.00 84 1001.8
20260505055208 69 338 0.0 0.0 0.00 0.00 0.00 84 1001.7
20260505055103 69 338 0.0 0.0 0.00 0.00 0.00 84 1001.7
20260505055003 69 338 0.0 0.0 0.00 0.00 0.00 84 1001.6
20260505054903 69 338 0.0 0.0 0.00 0.00 0.00 84 1001.6
20260505054803 69 338 0.0 2.0 0.00 0.00 0.00 84 1001.7
20260505054703 69 338 0.0 2.0 0.00 0.00 0.00 84 1001.6
20260505054604 69 338 0.0 2.0 0.00 0.00 0.00 84 1001.7
20260505054449 69 338 0.0 3.0 0.00 0.00 0.00 84 1001.7
20260505054349 69 338 0.0 3.0 0.00 0.00 0.00 84 1001.7
20260505054247 69 338 0.0 3.0 0.00 0.00 0.00 84 1001.6
20260505054149 69 338 0.0 3.0 0.00 0.00 0.00 84 1001.8
20260505054048 69 338 0.0 3.0 0.00 0.00 0.00 84 1001.7
20260505053947 69 338 0.0 3.0 0.00 0.00 0.00 84 1001.7
20260505053848 69 293 0.0 3.0 0.00 0.00 0.00 84 1001.7
20260505053749 69 4 0.0 3.0 0.00 0.00 0.00 84 1001.6
20260505053647 69 4 0.0 3.0 0.00 0.00 0.00 84 1001.6
20260505053548 69 357 0.0 3.0 0.00 0.00 0.00 84 1001.6
20260505053449 69 271 0.0 0.0 0.00 0.00 0.00 84 1001.6
20260505053347 69 271 0.0 0.0 0.00 0.00 0.00 84 1001.6
20260505053249 69 271 0.0 0.0 0.00 0.00 0.00 84 1001.6
20260505053148 69 271 0.0 0.0 0.00 0.00 0.00 84 1001.7
20260505053047 69 271 0.0 0.0 0.00 0.00 0.00 84 1001.7
20260505052949 69 271 0.0 0.0 0.00 0.00 0.00 84 1001.7
20260505052848 69 271 0.0 0.0 0.00 0.00 0.00 84 1001.7
20260505052748 69 271 0.0 0.0 0.00 0.00 0.00 84 1001.7
20260505052647 69 271 0.0 0.0 0.00 0.00 0.00 84 1001.8
20260505052548 69 271 0.0 0.0 0.00 0.00 0.00 84 1001.8
20260505052448 69 271 0.0 0.0 0.00 0.00 0.00 84 1001.8
20260505052347 69 271 0.0 0.0 0.00 0.00 0.00 84 1001.9
20260505052247 69 271 0.0 0.0 0.00 0.00 0.00 84 1001.9
20260505052147 69 271 0.0 0.0 0.00 0.00 0.00 84 1001.9
20260505052047 69 272 0.0 0.0 0.00 0.00 0.00 84 1001.9
20260505051947 69 272 0.0 0.0 0.00 0.00 0.00 84 1001.8
20260505051848 69 272 0.0 0.0 0.00 0.00 0.00 84 1001.8
20260505051747 69 272 0.0 0.0 0.00 0.00 0.00 84 1001.8
20260505051649 69 272 0.0 0.0 0.00 0.00 0.00 84 1001.8
20260505051547 69 255 0.0 0.0 0.00 0.00 0.00 84 1001.8
20260505051450 69 255 0.0 0.0 0.00 0.00 0.00 84 1001.8
20260505051343 69 255 0.0 0.0 0.00 0.00 0.00 84 1001.9
20260505051231 69 168 0.0 0.0 0.00 0.00 0.00 84 1001.9
20260505051131 69 168 0.0 0.0 0.00 0.00 0.00 84 1001.9
20260505051032 70 168 0.0 0.0 0.00 0.00 0.00 84 1001.8
20260505050932 70 168 0.0 0.0 0.00 0.00 0.00 84 1001.9
20260505050832 70 171 0.0 0.0 0.00 0.00 0.00 84 1001.9
20260505050733 69 171 0.0 0.0 0.00 0.00 0.00 84 1001.9
20260505050627 70 171 0.0 0.0 0.00 0.00 0.00 84 1002.0
20260505050526 70 171 0.0 0.0 0.00 0.00 0.00 84 1002.0
20260505050425 69 171 0.0 0.0 0.00 0.00 0.00 84 1002.0
20260505050318 70 171 0.0 0.0 0.00 0.00 0.00 84 1002.0
20260505050216 70 171 0.0 0.0 0.00 0.00 0.00 84 1002.0
20260505050110 70 171 0.0 0.0 0.00 0.00 0.00 84 1002.0
20260505041703 70 231 0.0 0.0 0.00 0.00 0.00 83 1002.0
20260505041604 70 231 0.0 0.0 0.00 0.00 0.00 83 1002.0
20260505041504 70 231 0.0 0.0 0.00 0.00 0.00 83 1002.0
20260505041403 70 231 0.0 0.0 0.00 0.00 0.00 83 1002.0
20260505041304 70 231 0.0 0.0 0.00 0.00 0.00 83 1002.0
20260505041203 70 340 0.0 0.0 0.00 0.00 0.00 83 1002.0
20260505041104 70 341 0.0 1.0 0.00 0.00 0.00 83 1002.0
20260505041002 70 341 0.0 1.0 0.00 0.00 0.00 83 1002.0
20260505040903 70 341 0.0 1.0 0.00 0.00 0.00 83 1002.1
20260505040802 70 341 0.0 1.0 0.00 0.00 0.00 82 1002.1
20260505040702 70 341 0.0 1.0 0.00 0.00 0.00 82 1002.1
20260505040601 70 341 0.0 2.0 0.00 0.00 0.00 82 1002.0
20260505040504 70 341 0.0 2.0 0.00 0.00 0.00 82 1002.0
20260505040403 70 341 0.0 2.0 0.00 0.00 0.00 82 1002.0
20260505040302 70 341 0.0 2.0 0.00 0.00 0.00 82 1002.0
20260505040203 70 341 0.0 2.0 0.00 0.00 0.00 82 1002.0
20260505040005 71 227 0.0 2.0 0.00 0.00 0.00 83 1001.9
20260505035902 71 227 0.0 2.0 0.00 0.00 0.00 82 1001.9
20260505035804 71 227 1.0 2.0 0.00 0.00 0.00 82 1001.9
20260505035702 71 227 0.0 2.0 0.00 0.00 0.00 82 1001.9
20260505035602 71 221 0.0 1.0 0.00 0.00 0.00 82 1001.8
20260505035505 71 272 0.0 1.0 0.00 0.00 0.00 82 1001.9
20260505035403 71 272 0.0 1.0 0.00 0.00 0.00 82 1002.0
20260505035304 71 271 0.0 2.0 0.00 0.00 0.00 82 1002.0
20260505035203 71 274 0.0 2.0 0.00 0.00 0.00 82 1002.1
20260505035103 71 278 0.0 2.0 0.00 0.00 0.00 82 1002.2
20260505035003 71 293 0.0 2.0 0.00 0.00 0.00 82 1002.2
20260505034902 71 293 0.0 2.0 0.00 0.00 0.00 82 1002.3
20260505034802 71 293 0.0 2.0 0.00 0.00 0.00 82 1002.3
20260505034704 71 293 0.0 2.0 0.00 0.00 0.00 82 1002.3
20260505034603 71 293 0.0 2.0 0.00 0.00 0.00 82 1002.4
20260505034503 71 293 1.0 2.0 0.00 0.00 0.00 82 1002.3
20260505034402 71 293 1.0 2.0 0.00 0.00 0.00 82 1002.3
20260505034301 71 248 0.0 2.0 0.00 0.00 0.00 82 1002.2
20260505034203 71 248 1.0 2.0 0.00 0.00 0.00 82 1002.2
20260505034102 71 248 1.0 2.0 0.00 0.00 0.00 82 1002.1
20260505034003 71 306 0.0 2.0 0.00 0.00 0.00 82 1002.1
20260505033903 71 321 0.0 2.0 0.00 0.00 0.00 82 1002.1
20260505033805 71 321 0.0 2.0 0.00 0.00 0.00 81 1002.1
20260505033703 71 321 0.0 2.0 0.00 0.00 0.00 81 1002.1
20260505033603 71 321 0.0 2.0 0.00 0.00 0.00 82 1002.1
20260505033502 71 321 0.0 2.0 0.00 0.00 0.00 82 1002.1
20260505033403 71 321 0.0 2.0 0.00 0.00 0.00 82 1002.1
20260505033303 71 321 0.0 2.0 0.00 0.00 0.00 82 1002.2
20260505033203 71 320 0.0 2.0 0.00 0.00 0.00 82 1002.1
20260505033104 71 221 0.0 1.0 0.00 0.00 0.00 82 1002.1
20260505033003 71 221 0.0 1.0 0.00 0.00 0.00 82 1002.1
20260505032902 71 221 0.0 1.0 0.00 0.00 0.00 82 1002.2
20260505032803 71 221 0.0 1.0 0.00 0.00 0.00 82 1002.2
20260505032703 71 219 0.0 1.0 0.00 0.00 0.00 82 1002.2
20260505032604 71 219 0.0 1.0 0.00 0.00 0.00 82 1002.3
20260505032446 71 216 0.0 1.0 0.00 0.00 0.00 82 1002.2
20260505032344 71 216 0.0 1.0 0.00 0.00 0.00 82 1002.3
20260505032245 71 216 0.0 1.0 0.00 0.00 0.00 82 1002.3
20260505032146 71 216 0.0 2.0 0.00 0.00 0.00 82 1002.3
20260505032045 71 216 0.0 2.0 0.00 0.00 0.00 82 1002.4
20260505031944 71 227 0.0 2.0 0.00 0.00 0.00 82 1002.3
20260505031846 71 227 0.0 2.0 0.00 0.00 0.00 81 1002.3
20260505031744 71 216 0.0 2.0 0.00 0.00 0.00 81 1002.4
20260505031645 71 216 0.0 2.0 0.00 0.00 0.00 81 1002.4
20260505031543 71 216 0.0 2.0 0.00 0.00 0.00 81 1002.3
20260505031436 71 216 0.0 2.0 0.00 0.00 0.00 81 1002.3
20260505031332 71 216 1.0 2.0 0.00 0.00 0.00 81 1002.3
20260505031232 71 216 0.0 2.0 0.00 0.00 0.00 81 1002.3
20260505031133 71 155 0.0 2.0 0.00 0.00 0.00 81 1002.3
20260505031030 71 155 0.0 2.0 0.00 0.00 0.00 81 1002.3
20260505030928 71 155 0.0 2.0 0.00 0.00 0.00 81 1002.3
20260505030824 71 155 0.0 2.0 0.00 0.00 0.00 81 1002.2
20260505030725 71 155 0.0 2.0 0.00 0.00 0.00 81 1002.2
20260505030618 71 155 1.0 2.0 0.00 0.00 0.00 81 1002.3
20260505030518 71 162 1.0 2.0 0.00 0.00 0.00 81 1002.3
20260505030418 72 168 0.0 1.0 0.00 0.00 0.00 81 1002.3
20260505030322 72 168 0.0 1.0 0.00 0.00 0.00 81 1002.3
20260505030216 72 168 0.0 2.0 0.00 0.00 0.00 81 1002.2
20260505030106 72 168 0.0 2.0 0.00 0.00 0.00 81 1002.2
20260505030004 72 168 0.0 2.0 0.00 0.00 0.00 81 1002.2
20260505025902 72 168 0.0 2.0 0.00 0.00 0.00 81 1002.1
20260505025803 72 296 0.0 2.0 0.00 0.00 0.00 81 1002.1
20260505025704 72 296 0.0 2.0 0.00 0.00 0.00 81 1002.1
20260505025603 72 296 0.0 2.0 0.00 0.00 0.00 81 1002.1
20260505025504 72 296 0.0 2.0 0.00 0.00 0.00 81 1002.1
20260505025405 72 296 0.0 2.0 0.00 0.00 0.00 81 1002.0
20260505025305 72 295 0.0 3.0 0.00 0.00 0.00 81 1002.1
20260505025203 72 358 0.0 3.0 0.00 0.00 0.00 81 1002.2
20260505025103 72 355 1.0 3.0 0.00 0.00 0.00 81 1002.2
20260505025004 72 357 1.0 3.0 0.00 0.00 0.00 81 1002.2
20260505024904 72 250 1.0 3.0 0.00 0.00 0.00 81 1002.1
20260505024803 72 252 0.0 3.0 0.00 0.00 0.00 81 1002.0
20260505024705 72 243 0.0 3.0 0.00 0.00 0.00 81 1002.1
20260505024603 72 243 1.0 3.0 0.00 0.00 0.00 81 1002.0
20260505024505 72 243 1.0 3.0 0.00 0.00 0.00 81 1002.0
20260505024358 72 252 1.0 3.0 0.00 0.00 0.00 81 1002.0
20260505024250 72 264 0.0 1.0 0.00 0.00 0.00 80 1001.9
20260505024144 72 248 0.0 1.0 0.00 0.00 0.00 80 1001.9
20260505024044 72 248 0.0 1.0 0.00 0.00 0.00 80 1001.9
20260505023946 72 248 0.0 1.0 0.00 0.00 0.00 80 1001.9
20260505023844 72 248 0.0 1.0 0.00 0.00 0.00 80 1001.9
20260505023743 72 248 0.0 1.0 0.00 0.00 0.00 80 1001.9
20260505023645 72 248 0.0 1.0 0.00 0.00 0.00 80 1001.9
20260505023544 72 248 0.0 2.0 0.00 0.00 0.00 80 1001.8
20260505023445 72 248 0.0 2.0 0.00 0.00 0.00 80 1001.9
20260505023343 72 248 0.0 2.0 0.00 0.00 0.00 80 1001.9
20260505023245 72 248 0.0 2.0 0.00 0.00 0.00 80 1001.9
20260505023143 73 247 0.0 2.0 0.00 0.00 0.00 80 1001.9
20260505023043 73 247 0.0 2.0 0.00 0.00 0.00 80 1001.9
20260505022945 73 247 0.0 2.0 0.00 0.00 0.00 80 1001.9
20260505022843 73 247 0.0 2.0 0.00 0.00 0.00 80 1001.9
20260505022748 73 247 1.0 2.0 0.00 0.00 0.00 80 1001.9
20260505022645 73 247 0.0 2.0 0.00 0.00 0.00 80 1001.9
20260505022544 73 281 0.0 2.0 0.00 0.00 0.00 80 1001.9
20260505022444 73 281 0.0 2.0 0.00 0.00 0.00 80 1001.9
20260505022344 73 189 0.0 2.0 0.00 0.00 0.00 80 1001.9
20260505022245 73 189 0.0 2.0 0.00 0.00 0.00 80 1001.8
20260505022145 73 216 0.0 2.0 0.00 0.00 0.00 80 1001.9
20260505022044 73 216 0.0 2.0 0.00 0.00 0.00 80 1001.9
20260505021944 73 217 0.0 2.0 0.00 0.00 0.00 80 1001.9
20260505021846 73 217 0.0 2.0 0.00 0.00 0.00 80 1001.9
20260505021745 73 217 0.0 2.0 0.00 0.00 0.00 80 1001.9
20260505021645 73 217 0.0 2.0 0.00 0.00 0.00 80 1001.9
20260505021543 73 217 0.0 2.0 0.00 0.00 0.00 79 1001.8
20260505021444 73 217 1.0 2.0 0.00 0.00 0.00 79 1001.7
20260505021344 73 217 0.0 2.0 0.00 0.00 0.00 79 1001.7
20260505021243 73 288 0.0 1.0 0.00 0.00 0.00 79 1001.7
20260505021145 73 288 0.0 1.0 0.00 0.00 0.00 79 1001.7
20260505021044 73 285 0.0 2.0 0.00 0.00 0.00 79 1001.8
20260505020944 73 285 0.0 2.0 0.00 0.00 0.00 79 1001.8
20260505020844 73 285 0.0 2.0 0.00 0.00 0.00 79 1001.8
20260505020744 73 285 0.0 2.0 0.00 0.00 0.00 79 1001.7
20260505020644 74 285 0.0 2.0 0.00 0.00 0.00 79 1001.7
20260505020543 74 285 0.0 3.0 0.00 0.00 0.00 79 1001.7
20260505020443 74 285 0.0 3.0 0.00 0.00 0.00 79 1001.8
20260505020344 74 285 0.0 3.0 0.00 0.00 0.00 79 1001.7
20260505020243 74 285 0.0 3.0 0.00 0.00 0.00 79 1001.8
20260505020143 74 288 0.0 3.0 0.00 0.00 0.00 79 1001.8
20260505020051 74 268 0.0 3.0 0.00 0.00 0.00 79 1001.7
20260505015944 74 268 1.0 3.0 0.00 0.00 0.00 79 1001.7
20260505015835 74 268 1.0 3.0 0.00 0.00 0.00 79 1001.7
20260505015735 74 0 2.0 3.0 0.00 0.00 0.00 79 1001.7
20260505015633 74 0 1.0 3.0 0.00 0.00 0.00 79 1001.8
20260505015532 74 233 0.0 2.0 0.00 0.00 0.00 79 1001.8
20260505015432 74 233 0.0 2.0 0.00 0.00 0.00 79 1001.8
20260505015331 74 83 0.0 2.0 0.00 0.00 0.00 79 1001.8
20260505015231 74 83 0.0 2.0 0.00 0.00 0.00 79 1001.8
20260505015132 74 83 0.0 3.0 0.00 0.00 0.00 79 1001.9
20260505015031 74 71 1.0 3.0 0.00 0.00 0.00 79 1001.8
20260505014932 74 71 1.0 3.0 0.00 0.00 0.00 79 1001.8
20260505014833 73 78 0.0 3.0 0.00 0.00 0.00 79 1001.8
20260505014732 73 78 0.0 3.0 0.00 0.00 0.00 79 1001.7
20260505014632 74 257 0.0 3.0 0.00 0.00 0.00 79 1001.8
20260505014533 74 257 0.0 3.0 0.00 0.00 0.00 79 1001.7
20260505014432 74 289 0.0 3.0 0.00 0.00 0.00 79 1001.6
20260505014330 74 312 1.0 3.0 0.00 0.00 0.00 79 1001.7
20260505014231 74 312 0.0 3.0 0.00 0.00 0.00 79 1001.8
20260505014121 74 257 0.0 2.0 0.00 0.00 0.00 79 1001.7
20260505014012 74 257 0.0 2.0 0.00 0.00 0.00 79 1001.8
20260505013910 74 257 1.0 2.0 0.00 0.00 0.00 79 1001.8
20260505013805 74 257 0.0 3.0 0.00 0.00 0.00 79 1001.7
20260505013702 73 261 0.0 3.0 0.00 0.00 0.00 79 1001.7
20260505013601 73 261 0.0 3.0 0.00 0.00 0.00 79 1001.7
20260505013505 73 261 0.0 3.0 0.00 0.00 0.00 79 1001.7
20260505013407 73 261 1.0 3.0 0.00 0.00 0.00 79 1001.7
20260505013302 73 261 1.0 3.0 0.00 0.00 0.00 79 1001.8
20260505013202 73 259 0.0 3.0 0.00 0.00 0.00 79 1001.7
20260505013103 73 252 0.0 3.0 0.00 0.00 0.00 79 1001.7
20260505013005 73 252 1.0 3.0 0.00 0.00 0.00 80 1001.7
20260505012902 73 252 1.0 3.0 0.00 0.00 0.00 80 1001.6
20260505012803 73 204 0.0 2.0 0.00 0.00 0.00 80 1001.7
20260505012704 73 206 1.0 2.0 0.00 0.00 0.00 80 1001.7
20260505012602 73 204 0.0 2.0 0.00 0.00 0.00 80 1001.6
20260505012504 73 204 0.0 0.0 0.00 0.00 0.00 80 1001.6
20260505012403 73 204 0.0 0.0 0.00 0.00 0.00 80 1001.7
20260505012304 73 204 0.0 0.0 0.00 0.00 0.00 80 1001.6
20260505012202 73 204 0.0 0.0 0.00 0.00 0.00 80 1001.6
20260505012103 73 204 0.0 0.0 0.00 0.00 0.00 80 1001.6
20260505012003 73 204 0.0 1.0 0.00 0.00 0.00 80 1001.5
20260505011902 73 204 0.0 1.0 0.00 0.00 0.00 79 1001.5
20260505011804 73 204 0.0 1.0 0.00 0.00 0.00 79 1001.6
20260505011702 73 204 0.0 1.0 0.00 0.00 0.00 79 1001.5
20260505011602 73 204 0.0 1.0 0.00 0.00 0.00 79 1001.5
20260505011503 73 204 0.0 1.0 0.00 0.00 0.00 79 1001.4
20260505011403 73 204 0.0 1.0 0.00 0.00 0.00 79 1001.4
20260505011304 73 204 0.0 1.0 0.00 0.00 0.00 79 1001.5
20260505011202 73 204 0.0 1.0 0.00 0.00 0.00 79 1001.5
20260505011103 73 204 0.0 1.0 0.00 0.00 0.00 79 1001.5
20260505011002 73 197 0.0 0.0 0.00 0.00 0.00 79 1001.5
20260505010903 73 197 0.0 0.0 0.00 0.00 0.00 79 1001.4
20260505010802 73 197 0.0 0.0 0.00 0.00 0.00 79 1001.4
20260505010703 73 197 0.0 1.0 0.00 0.00 0.00 79 1001.5
20260505010604 73 197 0.0 1.0 0.00 0.00 0.00 79 1001.4
20260505010502 73 197 0.0 1.0 0.00 0.00 0.00 79 1001.5
20260505010403 73 197 0.0 1.0 0.00 0.00 0.00 79 1001.5
20260505010302 73 197 0.0 1.0 0.00 0.00 0.00 79 1001.5
20260505010202 73 197 0.0 1.0 0.00 0.00 0.00 78 1001.6
20260505010103 73 197 0.0 1.0 0.00 0.00 0.00 78 1001.6
20260505010002 73 197 0.0 1.0 0.00 0.00 0.00 78 1001.6
20260505005903 73 197 0.0 2.0 0.00 0.00 0.00 78 1001.6
20260505005804 74 197 1.0 2.0 0.00 0.00 0.00 78 1001.7
20260505005702 74 204 0.0 2.0 0.00 0.00 0.00 78 1001.7
20260505005602 74 261 0.0 2.0 0.00 0.00 0.00 78 1001.6
20260505005502 74 261 0.0 2.0 0.00 0.00 0.00 78 1001.7
20260505005402 74 261 0.0 2.0 0.00 0.00 0.00 78 1001.6
20260505005304 74 261 0.0 2.0 0.00 0.00 0.00 78 1001.7
20260505005202 74 261 0.0 2.0 0.00 0.00 0.00 78 1001.6
20260505005102 74 261 0.0 2.0 0.00 0.00 0.00 77 1001.6
20260505005007 74 261 0.0 2.0 0.00 0.00 0.00 77 1001.6
20260505004902 74 261 0.0 1.0 0.00 0.00 0.00 77 1001.6
20260505004802 74 261 0.0 2.0 0.00 0.00 0.00 77 1001.6
20260505004702 74 261 0.0 2.0 0.00 0.00 0.00 77 1001.6
20260505004603 74 261 0.0 2.0 0.00 0.00 0.00 77 1001.5
20260505004503 74 261 0.0 2.0 0.00 0.00 0.00 77 1001.5
20260505004402 74 261 0.0 2.0 0.00 0.00 0.00 77 1001.5
20260505004302 74 261 0.0 2.0 0.00 0.00 0.00 77 1001.5
20260505004204 75 261 0.0 2.0 0.00 0.00 0.00 76 1001.5
20260505004102 75 265 0.0 2.0 0.00 0.00 0.00 76 1001.5
20260505004002 75 265 0.0 2.0 0.00 0.00 0.00 76 1001.5
20260505003903 75 265 0.0 2.0 0.00 0.00 0.00 76 1001.5
20260505003803 75 250 0.0 1.0 0.00 0.00 0.00 76 1001.5
20260505003702 75 250 0.0 0.0 0.00 0.00 0.00 76 1001.6
20260505003602 75 250 0.0 1.0 0.00 0.00 0.00 76 1001.5
20260505003502 75 250 0.0 1.0 0.00 0.00 0.00 76 1001.6
20260505003403 75 250 0.0 1.0 0.00 0.00 0.00 76 1001.6
20260505003304 75 250 0.0 2.0 0.00 0.00 0.00 76 1001.5
20260505003206 75 250 0.0 2.0 0.00 0.00 0.00 76 1001.6
20260505003103 75 250 0.0 2.0 0.00 0.00 0.00 76 1001.5
20260505003004 75 248 0.0 2.0 0.00 0.00 0.00 76 1001.6
20260505002902 75 248 0.0 2.0 0.00 0.00 0.00 76 1001.5
20260505002804 75 250 0.0 2.0 0.00 0.00 0.00 76 1001.5
20260505002703 76 250 0.0 2.0 0.00 0.00 0.00 76 1001.6
20260505002602 76 250 1.0 2.0 0.00 0.00 0.00 76 1001.5
20260505002504 76 345 1.0 2.0 0.00 0.00 0.00 76 1001.5
20260505002402 76 255 0.0 2.0 0.00 0.00 0.00 76 1001.4
20260505002303 76 248 0.0 1.0 0.00 0.00 0.00 76 1001.5
20260505002203 76 241 0.0 1.0 0.00 0.00 0.00 75 1001.5
20260505002102 76 241 0.0 1.0 0.00 0.00 0.00 75 1001.5
20260505002004 76 241 0.0 2.0 0.00 0.00 0.00 75 1001.5
20260505001903 76 241 0.0 2.0 0.00 0.00 0.00 75 1001.5
20260505001804 76 243 1.0 2.0 0.00 0.00 0.00 75 1001.5
20260505001705 76 238 0.0 2.0 0.00 0.00 0.00 75 1001.5
20260505001603 76 255 0.0 2.0 0.00 0.00 0.00 75 1001.6
20260505001504 76 255 0.0 2.0 0.00 0.00 0.00 74 1001.5
20260505001403 76 255 0.0 2.0 0.00 0.00 0.00 74 1001.5
20260505001302 76 255 0.0 2.0 0.00 0.00 0.00 74 1001.5
20260505001203 76 255 1.0 4.0 0.00 0.00 0.00 74 1001.6
20260505001102 76 238 1.0 4.0 0.00 0.00 0.00 74 1001.6
20260505001005 76 100 1.0 4.0 0.00 0.00 0.00 74 1001.5
20260505000904 76 13 0.0 4.0 0.00 0.00 0.00 74 1001.5
20260505000803 76 213 0.0 4.0 0.00 0.00 0.00 74 1001.6
20260505000703 76 213 0.0 4.0 0.00 0.00 0.00 74 1001.6
20260505000602 76 214 0.0 4.0 0.00 0.00 0.00 74 1001.6
20260505000503 76 214 1.0 4.0 0.00 0.00 0.00 74 1001.6
20260505000402 76 271 2.0 4.0 0.00 0.00 0.00 75 1001.7
20260505000302 76 247 1.0 4.0 0.00 0.00 0.00 75 1001.7
20260505000157 77 254 0.0 2.0 0.00 0.00 0.00 74 1001.7
20260505000044 77 271 0.0 2.0 0.00 0.00 0.00 74 1001.6
20260504235941 77 271 0.0 2.0 0.00 0.00 0.00 74 1001.6
20260504235840 77 271 0.0 2.0 0.00 0.00 0.00 74 1001.8
20260504235743 77 271 0.0 2.0 0.00 0.00 0.00 74 1001.7
20260504235649 77 224 1.0 3.0 0.00 0.00 0.00 74 1001.7
20260504235540 77 224 1.0 3.0 0.00 0.00 0.00 74 1001.7
20260504235442 77 319 1.0 3.0 0.00 0.00 0.00 74 1001.7
20260504235342 77 106 0.0 3.0 0.00 0.00 0.00 74 1001.7
20260504235239 77 331 1.0 3.0 0.00 0.00 0.00 74 1001.8
20260504235140 77 329 1.0 3.0 0.00 0.00 0.00 74 1001.8
20260504235042 77 75 1.0 3.0 0.00 0.00 0.00 74 1001.7
20260504234941 77 75 1.0 3.0 0.00 0.00 0.00 74 1001.8
20260504234842 77 248 2.0 3.0 0.00 0.00 0.00 74 1001.8
20260504234740 77 258 1.0 3.0 0.00 0.00 0.00 74 1001.8
20260504234639 77 99 0.0 2.0 0.00 0.00 0.00 74 1001.8
20260504234540 77 76 0.0 1.0 0.00 0.00 0.00 74 1001.7
20260504234440 77 76 0.0 3.0 0.00 0.00 0.00 74 1001.7
20260504234341 77 76 0.0 3.0 0.00 0.00 0.00 74 1001.7
20260504234241 77 76 0.0 3.0 0.00 0.00 0.00 74 1001.7
20260504234140 77 76 0.0 3.0 0.00 0.00 0.00 74 1001.7
20260504234040 77 78 0.0 3.0 0.00 0.00 0.00 74 1001.7
20260504233940 77 76 0.0 3.0 0.00 0.00 0.00 74 1001.7
20260504233840 77 73 0.0 3.0 0.00 0.00 0.00 74 1001.7
20260504233740 77 73 0.0 3.0 0.00 0.00 0.00 74 1001.7
20260504233639 77 73 1.0 3.0 0.00 0.00 0.00 74 1001.7
20260504233541 77 107 1.0 3.0 0.00 0.00 0.00 74 1001.7
20260504233439 77 238 1.0 2.0 0.00 0.00 0.00 74 1001.7
20260504233341 77 238 0.0 2.0 0.00 0.00 0.00 74 1001.6
20260504233239 77 238 0.0 2.0 0.00 0.00 0.00 74 1001.6
20260504233140 77 237 1.0 2.0 0.00 0.00 0.00 74 1001.5
20260504233040 77 237 1.0 2.0 0.00 0.00 0.00 74 1001.6
20260504232939 77 185 1.0 2.0 0.00 0.00 0.00 74 1001.7
20260504232839 77 183 1.0 2.0 0.00 0.00 0.00 74 1001.7
20260504232740 77 183 1.0 2.0 0.00 0.00 0.00 74 1001.8
20260504232639 77 183 1.0 2.0 0.00 0.00 0.00 74 1001.7
20260504232540 77 183 1.0 2.0 0.00 0.00 0.00 74 1001.7
20260504232440 77 183 1.0 2.0 0.00 0.00 0.00 73 1001.8
20260504232340 77 183 1.0 3.0 0.00 0.00 0.00 74 1001.8
20260504232239 78 182 1.0 3.0 0.00 0.00 0.00 74 1001.8
20260504232140 78 179 1.0 3.0 0.00 0.00 0.00 74 1001.9
20260504232040 78 237 1.0 3.0 0.00 0.00 0.00 74 1001.9
20260504231941 78 237 1.0 3.0 0.00 0.00 0.00 74 1001.9
20260504231839 78 292 1.0 3.0 0.00 0.00 0.00 73 1001.9
20260504231740 78 298 1.0 3.0 0.00 0.00 0.00 73 1001.9
20260504231640 78 20 1.0 3.0 0.00 0.00 0.00 73 1001.8
20260504231539 78 258 1.0 3.0 0.00 0.00 0.00 73 1001.8
20260504231440 78 323 1.0 3.0 0.00 0.00 0.00 73 1001.8
20260504231339 78 241 0.0 3.0 0.00 0.00 0.00 73 1001.8
20260504231242 78 241 1.0 3.0 0.00 0.00 0.00 73 1001.7
20260504231139 78 241 2.0 3.0 0.00 0.00 0.00 73 1001.8
20260504231040 78 241 2.0 3.0 0.00 0.00 0.00 73 1001.9
20260504230940 78 176 1.0 4.0 0.00 0.00 0.00 73 1001.9
20260504230841 78 175 1.0 4.0 0.00 0.00 0.00 72 1001.9
20260504230740 78 196 1.0 4.0 0.00 0.00 0.00 72 1001.9
20260504230640 78 196 1.0 4.0 0.00 0.00 0.00 72 1001.9
20260504230539 78 196 1.0 4.0 0.00 0.00 0.00 72 1001.9
20260504230439 78 172 1.0 4.0 0.00 0.00 0.00 71 1002.0
20260504230340 78 197 1.0 4.0 0.00 0.00 0.00 72 1002.0
20260504230238 78 200 1.0 4.0 0.00 0.00 0.00 72 1002.1
20260504230140 78 293 1.0 4.0 0.00 0.00 0.00 72 1002.1
20260504230041 78 302 1.0 4.0 0.00 0.00 0.00 72 1002.1
20260504225939 78 0 1.0 4.0 0.00 0.00 0.00 72 1002.1
20260504225839 78 358 1.0 4.0 0.00 0.00 0.00 72 1002.1
20260504225739 78 293 0.0 3.0 0.00 0.00 0.00 72 1002.1
20260504225639 78 293 1.0 3.0 0.00 0.00 0.00 72 1002.1
20260504225540 78 302 1.0 3.0 0.00 0.00 0.00 72 1002.2
20260504225448 78 250 2.0 3.0 0.00 0.00 0.00 72 1002.2
20260504225337 79 255 2.0 3.0 0.00 0.00 0.00 72 1002.3
20260504225239 79 141 2.0 3.0 0.00 0.00 0.00 72 1002.3
20260504225139 79 176 1.0 3.0 0.00 0.00 0.00 72 1002.3
20260504225038 79 135 1.0 3.0 0.00 0.00 0.00 72 1002.3
20260504224938 79 135 1.0 3.0 0.00 0.00 0.00 72 1002.3
20260504224840 79 52 1.0 3.0 0.00 0.00 0.00 72 1002.3
20260504224739 79 203 1.0 2.0 0.00 0.00 0.00 72 1002.3
20260504224638 79 306 1.0 2.0 0.00 0.00 0.00 71 1002.2
20260504224540 79 289 0.0 2.0 0.00 0.00 0.00 71 1002.2
20260504224439 79 289 0.0 2.0 0.00 0.00 0.00 71 1002.2
20260504224338 79 289 0.0 2.0 0.00 0.00 0.00 71 1002.1
20260504224239 79 296 0.0 2.0 0.00 0.00 0.00 71 1002.1
20260504224139 79 288 0.0 2.0 0.00 0.00 0.00 72 1002.1
20260504224039 79 290 0.0 2.0 0.00 0.00 0.00 71 1002.1
20260504223945 79 226 1.0 3.0 0.00 0.00 0.00 71 1002.1
20260504223839 79 227 1.0 3.0 0.00 0.00 0.00 71 1002.1
20260504223738 79 151 0.0 3.0 0.00 0.00 0.00 71 1002.1
20260504223638 79 151 0.0 3.0 0.00 0.00 0.00 71 1002.1
20260504223538 79 151 1.0 4.0 0.00 0.00 0.00 71 1002.1
20260504223438 79 79 1.0 4.0 0.00 0.00 0.00 71 1002.2
20260504223339 79 197 1.0 4.0 0.00 0.00 0.00 71 1002.2
20260504223239 79 197 2.0 4.0 0.00 0.00 0.00 71 1002.2
20260504223138 79 245 1.0 4.0 0.00 0.00 0.00 71 1002.2
20260504223038 79 189 1.0 4.0 0.00 0.00 0.00 71 1002.2
20260504222938 79 189 1.0 4.0 0.00 0.00 0.00 70 1002.3
20260504222839 79 189 2.0 4.0 0.00 0.00 0.00 70 1002.3
20260504222739 79 243 2.0 4.0 0.00 0.00 0.00 70 1002.3
20260504222638 79 330 1.0 4.0 0.00 0.00 0.00 71 1002.3
20260504222538 79 271 0.0 2.0 0.00 0.00 0.00 71 1002.4
20260504222439 79 321 1.0 2.0 0.00 0.00 0.00 70 1002.3
20260504222339 79 326 1.0 2.0 0.00 0.00 0.00 71 1002.3
20260504222238 79 271 1.0 2.0 0.00 0.00 0.00 71 1002.4
20260504222138 79 276 1.0 2.0 0.00 0.00 0.00 71 1002.3
20260504222038 79 275 1.0 2.0 0.00 0.00 0.00 70 1002.2
20260504221941 79 202 1.0 2.0 0.00 0.00 0.00 70 1002.3
20260504221837 79 106 1.0 2.0 0.00 0.00 0.00 70 1002.3
20260504221739 79 103 1.0 2.0 0.00 0.00 0.00 70 1002.2
20260504221638 79 262 0.0 3.0 0.00 0.00 0.00 70 1002.3
20260504221539 79 281 0.0 3.0 0.00 0.00 0.00 70 1002.3
20260504221435 79 281 1.0 3.0 0.00 0.00 0.00 69 1002.4
20260504221332 79 281 1.0 3.0 0.00 0.00 0.00 69 1002.3
20260504221232 80 244 1.0 3.0 0.00 0.00 0.00 70 1002.4
20260504221132 80 331 1.0 3.0 0.00 0.00 0.00 70 1002.4
20260504221031 80 179 1.0 3.0 0.00 0.00 0.00 69 1002.4
20260504220931 80 0 1.0 3.0 0.00 0.00 0.00 69 1002.4
20260504220831 79 0 1.0 3.0 0.00 0.00 0.00 69 1002.3
20260504220728 79 0 1.0 3.0 0.00 0.00 0.00 69 1002.4
20260504220629 79 207 1.0 3.0 0.00 0.00 0.00 69 1002.4
20260504220525 80 207 2.0 3.0 0.00 0.00 0.00 69 1002.5
20260504220412 80 179 1.0 3.0 0.00 0.00 0.00 70 1002.5
20260504220307 80 189 0.0 3.0 0.00 0.00 0.00 70 1002.5
20260504220205 80 189 0.0 3.0 0.00 0.00 0.00 71 1002.5
20260504220104 80 189 0.0 3.0 0.00 0.00 0.00 70 1002.6
20260504220005 80 189 0.0 3.0 0.00 0.00 0.00 70 1002.6
20260504215903 79 188 0.0 3.0 0.00 0.00 0.00 70 1002.6
20260504215804 79 188 0.0 3.0 0.00 0.00 0.00 70 1002.5
20260504215703 79 188 1.0 3.0 0.00 0.00 0.00 70 1002.6
20260504215603 79 188 1.0 3.0 0.00 0.00 0.00 70 1002.6
20260504215504 79 188 1.0 3.0 0.00 0.00 0.00 71 1002.6
20260504215403 79 312 1.0 4.0 0.00 0.00 0.00 70 1002.7
20260504215307 79 281 1.0 4.0 0.00 0.00 0.00 70 1002.6
20260504215202 79 281 1.0 4.0 0.00 0.00 0.00 68 1002.6
20260504215103 79 152 1.0 4.0 0.00 0.00 0.00 68 1002.6
20260504215002 79 20 1.0 4.0 0.00 0.00 0.00 68 1002.6
20260504214903 80 327 1.0 4.0 0.00 0.00 0.00 69 1002.6
20260504214803 80 130 0.0 4.0 0.00 0.00 0.00 69 1002.6
20260504214704 80 124 1.0 4.0 0.00 0.00 0.00 69 1002.7
20260504214602 80 124 1.0 4.0 0.00 0.00 0.00 69 1002.7
20260504214501 80 124 1.0 4.0 0.00 0.00 0.00 69 1002.7
20260504214411 80 259 1.0 3.0 0.00 0.00 0.00 69 1002.7
20260504214302 80 259 2.0 3.0 0.00 0.00 0.00 69 1002.7
20260504214203 80 275 1.0 3.0 0.00 0.00 0.00 69 1002.7
20260504214102 80 274 1.0 3.0 0.00 0.00 0.00 68 1002.7
20260504214004 80 196 1.0 3.0 0.00 0.00 0.00 68 1002.8
20260504213902 80 195 1.0 3.0 0.00 0.00 0.00 69 1002.8
20260504213803 80 248 0.0 3.0 0.00 0.00 0.00 69 1002.8
20260504213704 80 348 0.0 3.0 0.00 0.00 0.00 69 1002.8
20260504213602 80 348 1.0 3.0 0.00 0.00 0.00 67 1002.8
20260504213506 80 350 1.0 3.0 0.00 0.00 0.00 67 1002.9
20260504213404 80 281 1.0 3.0 0.00 0.00 0.00 67 1003.0
20260504213303 80 140 2.0 3.0 0.00 0.00 0.00 68 1003.0
20260504213203 80 243 1.0 3.0 0.00 0.00 0.00 68 1002.9
20260504213102 80 210 1.0 2.0 0.00 0.00 0.00 69 1002.9
20260504213003 80 149 1.0 2.0 0.00 0.00 0.00 69 1002.9
20260504212902 80 110 1.0 2.0 0.00 0.00 0.00 69 1002.9
20260504212803 80 27 1.0 3.0 0.00 0.00 0.00 71 1002.9
20260504212701 80 275 1.0 3.0 0.00 0.00 0.00 71 1002.9
20260504212603 80 100 0.0 3.0 0.00 0.00 0.00 68 1002.8
20260504212504 80 244 0.0 3.0 0.00 0.00 0.00 68 1002.9
20260504212403 80 244 0.0 4.0 0.00 0.00 0.00 69 1002.9
20260504212304 80 244 0.0 4.0 0.00 0.00 0.00 69 1002.9
20260504212204 80 244 0.0 4.0 0.00 0.00 0.00 69 1002.9
20260504212104 80 250 1.0 4.0 0.00 0.00 0.00 68 1003.0
20260504212003 80 250 1.0 4.0 0.00 0.00 0.00 68 1003.0
20260504211902 80 230 1.0 4.0 0.00 0.00 0.00 68 1003.0
20260504211802 80 92 1.0 4.0 0.00 0.00 0.00 67 1003.0
20260504211703 80 93 1.0 4.0 0.00 0.00 0.00 67 1002.9
20260504211604 80 161 2.0 4.0 0.00 0.00 0.00 70 1003.1
20260504211503 80 210 2.0 4.0 0.00 0.00 0.00 70 1003.1
20260504211401 80 97 1.0 2.0 0.00 0.00 0.00 70 1003.0
20260504211302 80 68 1.0 2.0 0.00 0.00 0.00 69 1003.1
20260504211204 80 68 1.0 2.0 0.00 0.00 0.00 70 1002.9
20260504211102 80 334 0.0 2.0 0.00 0.00 0.00 68 1003.0
20260504211003 80 334 1.0 2.0 0.00 0.00 0.00 68 1003.1
20260504210903 80 334 1.0 2.0 0.00 0.00 0.00 69 1003.2
20260504210803 80 183 1.0 2.0 0.00 0.00 0.00 69 1003.2
20260504210704 80 92 0.0 2.0 0.00 0.00 0.00 69 1003.2
20260504210603 80 217 0.0 2.0 0.00 0.00 0.00 68 1003.3
20260504210502 80 217 0.0 2.0 0.00 0.00 0.00 68 1003.3
20260504210402 80 217 0.0 2.0 0.00 0.00 0.00 67 1003.3
20260504210303 80 217 1.0 2.0 0.00 0.00 0.00 67 1003.3
20260504210203 81 266 1.0 2.0 0.00 0.00 0.00 65 1003.3
20260504210005 81 340 1.0 2.0 0.00 0.00 0.00 65 1003.4
20260504205904 81 85 1.0 3.0 0.00 0.00 0.00 68 1003.3
20260504205802 81 85 1.0 3.0 0.00 0.00 0.00 68 1003.4
20260504205702 81 85 0.0 3.0 0.00 0.00 0.00 67 1003.4
20260504205604 81 78 0.0 3.0 0.00 0.00 0.00 67 1003.4
20260504205503 81 80 0.0 3.0 0.00 0.00 0.00 64 1003.5
20260504205402 81 14 1.0 3.0 0.00 0.00 0.00 64 1003.3
20260504205304 81 14 1.0 3.0 0.00 0.00 0.00 65 1003.3
20260504205203 81 133 1.0 3.0 0.00 0.00 0.00 66 1003.4
20260504205108 81 196 1.0 3.0 0.00 0.00 0.00 66 1003.4
20260504205005 81 196 1.0 3.0 0.00 0.00 0.00 66 1003.4
20260504204904 81 200 1.0 4.0 0.00 0.00 0.00 66 1003.4
20260504204802 81 320 1.0 4.0 0.00 0.00 0.00 67 1003.4
20260504204704 81 319 0.0 4.0 0.00 0.00 0.00 67 1003.3
20260504204553 81 179 1.0 4.0 0.00 0.00 0.00 68 1003.4
20260504204450 81 179 1.0 4.0 0.00 0.00 0.00 68 1003.4
20260504204348 81 354 1.0 4.0 0.00 0.00 0.00 65 1003.4
20260504204239 81 140 1.0 4.0 0.00 0.00 0.00 65 1003.5
20260504204137 80 0 0.0 4.0 0.00 0.00 0.00 65 1003.5
20260504204035 80 0 1.0 4.0 0.00 0.00 0.00 66 1003.6
20260504203935 80 0 2.0 4.0 0.00 0.00 0.00 66 1003.6
20260504203836 80 241 2.0 3.0 0.00 0.00 0.00 68 1003.6
20260504203736 80 227 2.0 3.0 0.00 0.00 0.00 68 1003.8
20260504203636 80 221 1.0 3.0 0.00 0.00 0.00 68 1003.8
20260504203537 80 148 0.0 2.0 0.00 0.00 0.00 67 1003.8
20260504203437 80 148 1.0 2.0 0.00 0.00 0.00 66 1003.8
20260504203340 80 148 1.0 2.0 0.00 0.00 0.00 66 1003.8
20260504203235 80 147 1.0 3.0 0.00 0.00 0.00 69 1003.7
20260504203136 80 149 0.0 3.0 0.00 0.00 0.00 67 1003.7
20260504203036 80 168 0.0 3.0 0.00 0.00 0.00 67 1003.7
20260504202936 80 168 0.0 3.0 0.00 0.00 0.00 67 1003.7
20260504202835 80 168 0.0 3.0 0.00 0.00 0.00 67 1003.7
20260504202737 80 168 1.0 3.0 0.00 0.00 0.00 67 1003.7
20260504202635 80 130 0.0 3.0 0.00 0.00 0.00 67 1003.8
20260504202536 80 125 1.0 3.0 0.00 0.00 0.00 67 1003.8
20260504202443 80 125 1.0 3.0 0.00 0.00 0.00 67 1003.8
20260504202336 81 355 1.0 3.0 0.00 0.00 0.00 66 1003.8
20260504202235 81 82 1.0 3.0 0.00 0.00 0.00 67 1003.9
20260504202137 81 330 1.0 3.0 0.00 0.00 0.00 65 1003.8
20260504202035 81 99 1.0 3.0 0.00 0.00 0.00 65 1003.8
20260504201936 81 117 2.0 3.0 0.00 0.00 0.00 67 1003.8
20260504201836 81 39 1.0 3.0 0.00 0.00 0.00 67 1003.8
20260504201735 81 152 1.0 3.0 0.00 0.00 0.00 68 1003.8
20260504201635 81 166 1.0 3.0 0.00 0.00 0.00 68 1003.9
20260504201536 81 166 1.0 3.0 0.00 0.00 0.00 68 1004.0
20260504201435 80 166 1.0 3.0 0.00 0.00 0.00 69 1004.0
20260504201335 80 4 1.0 3.0 0.00 0.00 0.00 70 1004.1
20260504201235 79 11 1.0 3.0 0.00 0.00 0.00 67 1004.1
20260504201136 79 8 1.0 3.0 0.00 0.00 0.00 67 1004.1
20260504201035 79 97 1.0 3.0 0.00 0.00 0.00 68 1004.2
20260504200934 79 274 1.0 3.0 0.00 0.00 0.00 69 1004.2
20260504200836 79 317 1.0 3.0 0.00 0.00 0.00 67 1004.2
20260504200738 79 214 0.0 2.0 0.00 0.00 0.00 67 1004.2
20260504200630 79 219 0.0 2.0 0.00 0.00 0.00 68 1004.3
20260504200519 79 227 0.0 2.0 0.00 0.00 0.00 68 1004.3
20260504200417 80 227 0.0 2.0 0.00 0.00 0.00 68 1004.3
20260504200315 80 231 0.0 2.0 0.00 0.00 0.00 68 1004.3
20260504200215 80 231 0.0 2.0 0.00 0.00 0.00 68 1004.3
20260504200108 80 233 0.0 3.0 0.00 0.00 0.00 67 1004.3
20260504200004 80 233 0.0 3.0 0.00 0.00 0.00 67 1004.3
20260504195904 79 233 1.0 3.0 0.00 0.00 0.00 69 1004.3
20260504195803 79 227 1.0 3.0 0.00 0.00 0.00 69 1004.4
20260504195703 79 217 1.0 3.0 0.00 0.00 0.00 68 1004.5
20260504195604 79 309 1.0 3.0 0.00 0.00 0.00 68 1004.6
20260504195504 79 254 1.0 3.0 0.00 0.00 0.00 69 1004.6
20260504195403 79 18 1.0 3.0 0.00 0.00 0.00 68 1004.6
20260504195304 79 117 1.0 5.0 0.00 0.00 0.00 68 1004.5
20260504195202 79 210 2.0 5.0 0.00 0.00 0.00 68 1004.6
20260504195104 80 138 1.0 5.0 0.00 0.00 0.00 67 1004.6
20260504195002 80 138 0.0 5.0 0.00 0.00 0.00 67 1004.6
20260504194902 80 121 0.0 5.0 0.00 0.00 0.00 66 1004.6
20260504194803 80 120 0.0 5.0 0.00 0.00 0.00 66 1004.6
20260504194702 80 120 0.0 5.0 0.00 0.00 0.00 66 1004.6
20260504194602 80 244 0.0 5.0 0.00 0.00 0.00 66 1004.7
20260504194505 80 244 2.0 5.0 0.00 0.00 0.00 66 1004.7
20260504194403 80 343 1.0 5.0 0.00 0.00 0.00 68 1004.7
20260504194302 80 199 0.0 3.0 0.00 0.00 0.00 69 1004.7
20260504194203 80 296 0.0 3.0 0.00 0.00 0.00 67 1004.8
20260504194104 80 296 0.0 3.0 0.00 0.00 0.00 67 1004.7
20260504194003 80 296 1.0 3.0 0.00 0.00 0.00 67 1004.8
20260504193903 80 305 1.0 3.0 0.00 0.00 0.00 65 1004.8
20260504193802 80 245 1.0 3.0 0.00 0.00 0.00 67 1004.8
20260504193703 80 329 1.0 3.0 0.00 0.00 0.00 66 1004.7
20260504193602 80 281 0.0 3.0 0.00 0.00 0.00 65 1004.7
20260504193503 80 281 1.0 3.0 0.00 0.00 0.00 65 1004.7
20260504193403 80 281 2.0 3.0 0.00 0.00 0.00 66 1004.6
20260504193302 80 96 1.0 3.0 0.00 0.00 0.00 66 1004.6
20260504193208 80 92 0.0 2.0 0.00 0.00 0.00 66 1004.7
20260504193104 80 241 0.0 4.0 0.00 0.00 0.00 66 1004.7
20260504193004 80 241 1.0 4.0 0.00 0.00 0.00 68 1004.8
20260504192904 80 251 1.0 4.0 0.00 0.00 0.00 68 1004.8
20260504192802 80 310 1.0 4.0 0.00 0.00 0.00 68 1004.8
20260504192704 80 203 1.0 4.0 0.00 0.00 0.00 67 1004.8
20260504192602 80 197 1.0 4.0 0.00 0.00 0.00 67 1004.8
20260504192504 80 197 1.0 4.0 0.00 0.00 0.00 67 1004.8
20260504192402 80 266 1.0 4.0 0.00 0.00 0.00 67 1004.8
20260504192304 80 128 1.0 4.0 0.00 0.00 0.00 67 1004.8
20260504192202 80 78 1.0 4.0 0.00 0.00 0.00 69 1004.8
20260504192103 80 254 1.0 3.0 0.00 0.00 0.00 69 1004.8
20260504192003 79 319 1.0 3.0 0.00 0.00 0.00 69 1004.8
20260504191904 79 147 0.0 3.0 0.00 0.00 0.00 67 1004.9
20260504191803 79 148 1.0 3.0 0.00 0.00 0.00 67 1004.9
20260504191704 79 334 1.0 3.0 0.00 0.00 0.00 70 1004.9
20260504191604 79 275 1.0 3.0 0.00 0.00 0.00 70 1004.9
20260504191505 78 27 0.0 3.0 0.00 0.00 0.00 68 1005.0
20260504191404 78 28 0.0 3.0 0.00 0.00 0.00 68 1004.9
20260504191303 78 148 1.0 3.0 0.00 0.00 0.00 68 1005.0
20260504191134 78 149 2.0 3.0 0.00 0.00 0.00 68 1005.0
20260504191034 78 149 1.0 3.0 0.00 0.00 0.00 68 1005.0
20260504190933 78 109 0.0 3.0 0.00 0.00 0.00 68 1005.1
20260504190833 78 109 1.0 3.0 0.00 0.00 0.00 68 1005.1
20260504190733 78 37 1.0 3.0 0.00 0.00 0.00 68 1005.2
20260504190633 78 137 1.0 3.0 0.00 0.00 0.00 67 1005.1
20260504190533 79 125 2.0 3.0 0.00 0.00 0.00 66 1005.2
20260504190434 79 223 1.0 3.0 0.00 0.00 0.00 66 1005.2
20260504190335 79 169 1.0 2.0 0.00 0.00 0.00 66 1005.3
20260504190233 79 169 0.0 2.0 0.00 0.00 0.00 68 1005.2
20260504190134 79 169 0.0 2.0 0.00 0.00 0.00 66 1005.3
20260504190035 79 169 0.0 2.0 0.00 0.00 0.00 66 1005.3
20260504185933 80 169 0.0 2.0 0.00 0.00 0.00 66 1005.3
20260504185833 80 169 1.0 2.0 0.00 0.00 0.00 68 1005.3
20260504185735 80 169 1.0 2.0 0.00 0.00 0.00 68 1005.3
20260504185634 80 169 0.0 2.0 0.00 0.00 0.00 68 1005.4
20260504185533 79 168 1.0 2.0 0.00 0.00 0.00 65 1005.3
20260504185433 79 169 1.0 2.0 0.00 0.00 0.00 69 1005.3
20260504185334 79 114 1.0 2.0 0.00 0.00 0.00 69 1005.4
20260504185233 79 114 1.0 2.0 0.00 0.00 0.00 69 1005.4
20260504185134 79 117 1.0 3.0 0.00 0.00 0.00 69 1005.3
20260504185033 79 21 1.0 3.0 0.00 0.00 0.00 69 1005.4
20260504184933 79 337 0.0 3.0 0.00 0.00 0.00 70 1005.3
20260504184835 79 337 0.0 3.0 0.00 0.00 0.00 66 1005.3
20260504184734 78 338 1.0 3.0 0.00 0.00 0.00 66 1005.3
20260504184633 79 176 1.0 3.0 0.00 0.00 0.00 66 1005.4
20260504184534 79 196 1.0 3.0 0.00 0.00 0.00 66 1005.4
20260504184435 79 327 1.0 3.0 0.00 0.00 0.00 65 1005.4
20260504184335 79 327 1.0 3.0 0.00 0.00 0.00 65 1005.4
20260504184233 79 354 1.0 3.0 0.00 0.00 0.00 66 1005.4
20260504184135 79 106 0.0 3.0 0.00 0.00 0.00 68 1005.4
20260504184033 79 51 0.0 3.0 0.00 0.00 0.00 67 1005.5
20260504183933 79 51 1.0 3.0 0.00 0.00 0.00 67 1005.5
20260504183833 79 68 2.0 4.0 0.00 0.00 0.00 65 1005.5
20260504183733 79 34 2.0 4.0 0.00 0.00 0.00 67 1005.6
20260504183632 79 144 2.0 4.0 0.00 0.00 0.00 66 1005.5
20260504183533 79 266 2.0 4.0 0.00 0.00 0.00 65 1005.5
20260504183433 79 272 1.0 4.0 0.00 0.00 0.00 65 1005.6
20260504183333 79 305 1.0 5.0 0.00 0.00 0.00 65 1005.5
20260504183232 79 274 1.0 5.0 0.00 0.00 0.00 65 1005.6
20260504183132 79 350 1.0 5.0 0.00 0.00 0.00 65 1005.6
20260504183033 79 350 2.0 5.0 0.00 0.00 0.00 64 1005.6
20260504182933 79 324 1.0 5.0 0.00 0.00 0.00 64 1005.6
20260504182833 79 276 1.0 5.0 0.00 0.00 0.00 64 1005.6
20260504182733 79 231 1.0 5.0 0.00 0.00 0.00 64 1005.6
20260504182633 80 120 1.0 5.0 0.00 0.00 0.00 66 1005.6
20260504182533 79 340 2.0 5.0 0.00 0.00 0.00 67 1005.6
20260504182433 79 130 2.0 5.0 0.00 0.00 0.00 67 1005.6
20260504182332 79 165 2.0 4.0 0.00 0.00 0.00 68 1005.7
20260504182232 79 165 2.0 4.0 0.00 0.00 0.00 66 1005.6
20260504182133 79 334 2.0 4.0 0.00 0.00 0.00 66 1005.6
20260504182032 79 257 2.0 4.0 0.00 0.00 0.00 65 1005.6
20260504181933 79 257 2.0 4.0 0.00 0.00 0.00 65 1005.7
20260504181832 79 138 1.0 4.0 0.00 0.00 0.00 65 1005.7
20260504181730 78 302 0.0 4.0 0.00 0.00 0.00 65 1005.8
20260504181631 79 302 0.0 4.0 0.00 0.00 0.00 65 1005.8
20260504181531 79 300 1.0 4.0 0.00 0.00 0.00 65 1005.7
20260504181431 79 300 2.0 4.0 0.00 0.00 0.00 65 1005.7
20260504181334 79 175 1.0 3.0 0.00 0.00 0.00 65 1005.7
20260504181232 80 175 1.0 3.0 0.00 0.00 0.00 65 1005.6
20260504181133 80 102 1.0 3.0 0.00 0.00 0.00 65 1005.6
20260504181030 80 235 1.0 3.0 0.00 0.00 0.00 65 1005.5
20260504180931 80 258 1.0 3.0 0.00 0.00 0.00 65 1005.6
20260504180833 80 24 1.0 3.0 0.00 0.00 0.00 65 1005.6
20260504180718 80 34 2.0 3.0 0.00 0.00 0.00 64 1005.6
20260504180618 80 13 2.0 3.0 0.00 0.00 0.00 64 1005.6
20260504180515 80 11 2.0 3.0 0.00 0.00 0.00 67 1005.7
20260504180411 80 305 1.0 3.0 0.00 0.00 0.00 67 1005.8
20260504180307 80 317 1.0 3.0 0.00 0.00 0.00 66 1005.8
20260504180204 80 217 1.0 3.0 0.00 0.00 0.00 66 1005.8
20260504180104 80 217 1.0 3.0 0.00 0.00 0.00 64 1005.8
20260504180003 80 176 1.0 4.0 0.00 0.00 0.00 64 1005.9
20260504175902 80 3 0.0 4.0 0.00 0.00 0.00 64 1005.9
20260504175803 80 7 1.0 4.0 0.00 0.00 0.00 64 1005.9
20260504175702 80 226 1.0 4.0 0.00 0.00 0.00 64 1006.0
20260504175607 80 224 2.0 4.0 0.00 0.00 0.00 66 1006.0
20260504175504 80 210 1.0 4.0 0.00 0.00 0.00 66 1006.0
20260504175402 80 188 1.0 4.0 0.00 0.00 0.00 66 1005.9
20260504175304 80 216 1.0 4.0 0.00 0.00 0.00 63 1006.0
20260504175202 80 298 2.0 4.0 0.00 0.00 0.00 63 1006.1
20260504175101 80 302 2.0 4.0 0.00 0.00 0.00 65 1006.0
20260504175004 80 355 2.0 4.0 0.00 0.00 0.00 65 1006.0
20260504174904 80 133 2.0 4.0 0.00 0.00 0.00 64 1006.1
20260504174804 80 118 2.0 4.0 0.00 0.00 0.00 64 1006.0
20260504174713 80 159 1.0 4.0 0.00 0.00 0.00 64 1006.0
20260504174604 80 227 1.0 4.0 0.00 0.00 0.00 64 1006.0
20260504174504 80 275 1.0 4.0 0.00 0.00 0.00 65 1006.0
20260504174403 80 299 2.0 4.0 0.00 0.00 0.00 65 1006.0
20260504174303 79 243 1.0 4.0 0.00 0.00 0.00 65 1006.1
20260504174204 79 200 2.0 4.0 0.00 0.00 0.00 65 1006.1
20260504174103 79 202 3.0 4.0 0.00 0.00 0.00 65 1006.0
20260504174003 79 127 2.0 6.0 0.00 0.00 0.00 66 1006.1
20260504173902 79 10 1.0 6.0 0.00 0.00 0.00 66 1006.0
20260504173803 79 72 1.0 6.0 0.00 0.00 0.00 66 1006.0
20260504173704 79 72 2.0 6.0 0.00 0.00 0.00 66 1006.0
20260504173604 79 219 2.0 6.0 0.00 0.00 0.00 66 1006.1
20260504173505 79 175 1.0 6.0 0.00 0.00 0.00 66 1006.0